KC5DAQ-28 Weather Reports


Display with metric or nautical units.
time (UTC)temp
F
wind
direction
speed
MPH
gust
MPH
rain 1hr
in
rain 24hr
in
rain mn
in
humidity
%
barometer
mb
20260904175915 76 66 2.0 5.0 0.01 0.06 0.03 90 1009.2
20260904175815 76 69 2.0 5.0 0.01 0.06 0.03 90 1009.3
20260904175714 76 52 2.0 5.0 0.01 0.06 0.03 90 1009.4
20260904175614 76 52 2.0 5.0 0.01 0.06 0.03 90 1009.3
20260904175517 76 76 2.0 5.0 0.01 0.06 0.03 90 1009.3
20260904175415 76 54 2.0 5.0 0.01 0.06 0.03 90 1009.3
20260904175316 75 75 1.0 4.0 0.01 0.06 0.03 90 1009.3
20260904175216 75 85 1.0 5.0 0.01 0.06 0.03 90 1009.2
20260904175115 75 83 2.0 5.0 0.01 0.06 0.03 90 1009.2
20260904175015 75 89 2.0 5.0 0.01 0.06 0.03 90 1009.2
20260904174915 75 89 2.0 5.0 0.01 0.06 0.03 90 1009.2
20260904174814 75 90 2.0 5.0 0.01 0.06 0.03 90 1009.2
20260904174716 75 92 2.0 5.0 0.01 0.06 0.03 90 1009.1
20260904174615 75 54 2.0 5.0 0.01 0.06 0.03 89 1009.1
20260904174516 75 54 2.0 5.0 0.01 0.06 0.03 89 1009.1
20260904174416 75 54 2.0 5.0 0.01 0.06 0.03 89 1009.1
20260904174317 75 54 2.0 5.0 0.01 0.06 0.03 89 1009.1
20260904174215 75 96 1.0 5.0 0.01 0.06 0.03 89 1009.2
20260904174116 75 110 2.0 5.0 0.01 0.06 0.03 89 1009.1
20260904174014 75 111 2.0 5.0 0.01 0.06 0.03 90 1009.2
20260904173914 75 89 2.0 4.0 0.01 0.06 0.03 89 1009.2
20260904173815 75 69 2.0 4.0 0.02 0.06 0.03 89 1009.1
20260904173714 75 49 2.0 4.0 0.02 0.06 0.03 89 1009.1
20260904173615 75 55 1.0 11.0 0.02 0.06 0.03 89 1009.1
20260904173515 75 71 2.0 11.0 0.02 0.06 0.03 89 1009.1
20260904173415 75 65 1.0 11.0 0.02 0.06 0.03 89 1009.1
20260904173313 75 72 1.0 11.0 0.02 0.06 0.03 89 1009.1
20260904173213 75 76 2.0 11.0 0.02 0.06 0.03 89 1009.1
20260904173116 75 83 2.0 11.0 0.02 0.06 0.03 89 1009.2
20260904173016 75 41 3.0 11.0 0.02 0.06 0.03 89 1009.2
20260904172914 75 23 2.0 11.0 0.02 0.06 0.03 89 1009.2
20260904172813 75 54 4.0 11.0 0.02 0.06 0.03 89 1009.2
20260904172715 75 0 5.0 13.0 0.02 0.06 0.03 89 1009.3
20260904172615 75 1 5.0 13.0 0.02 0.06 0.03 89 1009.3
20260904172506 75 0 6.0 13.0 0.02 0.06 0.03 89 1009.3
20260904172404 75 13 6.0 13.0 0.02 0.06 0.03 89 1009.4
20260904172305 76 4 5.0 13.0 0.02 0.06 0.03 89 1009.5
20260904172202 76 0 5.0 13.0 0.02 0.06 0.03 89 1009.4
20260904172103 76 341 6.0 13.0 0.02 0.06 0.03 89 1009.5
20260904172005 76 37 7.0 13.0 0.02 0.06 0.03 89 1009.6
20260904171904 76 27 8.0 13.0 0.02 0.06 0.03 89 1009.6
20260904171804 77 8 6.0 13.0 0.02 0.06 0.03 90 1009.5
20260904171703 77 23 5.0 12.0 0.02 0.06 0.03 90 1009.6
20260904171603 77 85 5.0 12.0 0.02 0.06 0.03 90 1009.6
20260904171504 77 31 2.0 7.0 0.03 0.06 0.03 90 1009.6
20260904171400 77 27 2.0 7.0 0.03 0.06 0.03 90 1009.6
20260904171258 77 32 3.0 7.0 0.03 0.06 0.03 90 1009.7
20260904171152 77 27 3.0 7.0 0.03 0.06 0.03 90 1009.6
20260904171052 77 28 3.0 7.0 0.03 0.06 0.03 89 1009.6
20260904170949 77 14 4.0 7.0 0.03 0.06 0.03 89 1009.6
20260904170849 77 4 5.0 7.0 0.03 0.06 0.03 89 1009.6
20260904170744 77 0 5.0 7.0 0.03 0.05 0.02 89 1009.6
20260904170640 77 0 5.0 7.0 0.02 0.05 0.02 89 1009.6
20260904170534 77 345 4.0 7.0 0.02 0.05 0.02 90 1009.7
20260904170432 77 4 3.0 6.0 0.02 0.05 0.02 89 1009.8
20260904170324 77 0 3.0 6.0 0.02 0.05 0.02 89 1009.9
20260904170222 77 357 4.0 6.0 0.02 0.05 0.02 89 1009.9
20260904170120 77 17 4.0 6.0 0.02 0.05 0.02 89 1009.8
20260904170015 77 4 3.0 5.0 0.02 0.05 0.00 89 1009.7
20260904165911 77 8 3.0 5.0 0.02 0.05 0.02 89 1009.5
20260904165812 77 66 2.0 4.0 0.02 0.05 0.02 89 1009.4
20260904165711 77 68 1.0 5.0 0.02 0.05 0.02 89 1009.3
20260904165609 77 68 0.0 6.0 0.02 0.05 0.02 88 1009.1
20260904165504 77 68 0.0 6.0 0.02 0.05 0.02 88 1009.1
20260904165404 78 68 0.0 6.0 0.02 0.05 0.02 88 1009.1
20260904165305 78 68 0.0 6.0 0.02 0.05 0.02 88 1009.2
20260904165203 78 68 0.0 6.0 0.02 0.05 0.02 88 1009.3
20260904165104 78 68 1.0 6.0 0.02 0.05 0.02 88 1009.5
20260904165004 78 68 2.0 6.0 0.02 0.05 0.02 88 1009.6
20260904164903 78 71 3.0 6.0 0.02 0.05 0.02 88 1009.7
20260904164803 78 71 4.0 6.0 0.02 0.05 0.02 88 1009.8
20260904164702 78 80 5.0 6.0 0.02 0.05 0.02 88 1009.9
20260904164603 78 87 4.0 6.0 0.02 0.05 0.02 88 1009.9
20260904164504 78 92 4.0 7.0 0.02 0.05 0.02 88 1009.7
20260904164404 78 93 4.0 7.0 0.02 0.05 0.02 88 1009.7
20260904164304 78 86 4.0 7.0 0.02 0.05 0.02 88 1009.7
20260904164204 78 92 4.0 7.0 0.02 0.05 0.02 87 1009.6
20260904164103 78 96 4.0 7.0 0.02 0.05 0.02 87 1009.6
20260904164003 78 92 3.0 7.0 0.02 0.05 0.02 87 1009.5
20260904163904 78 97 3.0 7.0 0.02 0.04 0.01 88 1009.5
20260904163804 78 107 4.0 7.0 0.01 0.04 0.01 88 1009.6
20260904163703 78 128 5.0 7.0 0.01 0.04 0.01 88 1009.6
20260904163602 78 127 5.0 7.0 0.01 0.04 0.01 88 1009.6
20260904163502 78 106 5.0 6.0 0.01 0.04 0.01 88 1009.5
20260904163403 78 107 4.0 6.0 0.01 0.04 0.01 88 1009.5
20260904163302 78 82 3.0 6.0 0.01 0.04 0.01 87 1009.3
20260904163202 78 13 4.0 6.0 0.01 0.04 0.01 87 1009.3
20260904163102 78 338 4.0 7.0 0.01 0.04 0.01 87 1009.3
20260904163003 78 348 4.0 7.0 0.01 0.04 0.01 87 1009.2
20260904162903 78 320 4.0 7.0 0.01 0.04 0.01 87 1009.2
20260904162802 78 309 3.0 7.0 0.01 0.04 0.01 86 1009.1
20260904162702 78 295 3.0 7.0 0.01 0.04 0.01 86 1009.1
20260904162603 78 283 4.0 7.0 0.01 0.04 0.01 87 1009.1
20260904162505 78 272 5.0 7.0 0.01 0.04 0.01 87 1009.1
20260904162401 78 265 4.0 7.0 0.01 0.04 0.01 87 1009.1
20260904162305 78 269 4.0 7.0 0.01 0.04 0.01 86 1009.1
20260904162204 78 289 5.0 7.0 0.01 0.04 0.01 86 1009.0
20260904162104 78 292 4.0 7.0 0.01 0.04 0.01 85 1009.1
20260904162002 79 283 5.0 7.0 0.01 0.04 0.01 85 1009.0
20260904161905 79 292 5.0 7.0 0.01 0.04 0.01 85 1009.2
20260904161802 79 288 5.0 7.0 0.01 0.04 0.01 85 1009.3
20260904161703 79 309 5.0 7.0 0.01 0.04 0.01 84 1009.3
20260904161604 80 0 6.0 7.0 0.01 0.03 0.00 83 1009.4
20260904161504 80 0 6.0 7.0 0.00 0.03 0.00 83 1009.6
20260904161404 80 0 5.0 6.0 0.00 0.03 0.00 82 1009.6
20260904161303 80 18 4.0 6.0 0.00 0.03 0.00 82 1009.5
20260904161203 80 28 4.0 9.0 0.00 0.03 0.00 82 1009.4
20260904161102 80 24 3.0 9.0 0.00 0.03 0.00 82 1009.3
20260904161003 81 59 1.0 9.0 0.00 0.03 0.00 82 1009.3
20260904160902 81 157 1.0 9.0 0.00 0.03 0.00 81 1009.2
20260904160803 81 157 2.0 9.0 0.00 0.03 0.00 80 1009.0
20260904160702 82 199 3.0 9.0 0.00 0.03 0.00 80 1009.0
20260904160602 82 155 4.0 9.0 0.00 0.03 0.00 79 1008.9
20260904160505 83 188 4.0 9.0 0.00 0.03 0.00 79 1008.8
20260904160402 84 189 4.0 9.0 0.00 0.03 0.00 78 1008.7
20260904160304 85 192 4.0 9.0 0.00 0.03 0.00 78 1008.7
20260904160203 85 206 3.0 6.0 0.00 0.03 0.00 78 1008.8
20260904160105 86 155 3.0 6.0 0.00 0.03 0.00 78 1008.7
20260904160004 86 206 2.0 6.0 0.00 0.03 0.00 78 1008.7
20260904155904 86 214 2.0 6.0 0.00 0.03 0.00 78 1008.6
20260904155803 86 186 3.0 6.0 0.00 0.03 0.00 77 1008.6
20260904155702 87 197 3.0 4.0 0.00 0.03 0.00 77 1008.6
20260904155603 87 175 2.0 5.0 0.00 0.03 0.00 77 1008.5
20260904155503 87 180 2.0 5.0 0.00 0.03 0.00 76 1008.5
20260904155403 87 180 2.0 5.0 0.00 0.03 0.00 76 1008.5
20260904155306 87 175 3.0 5.0 0.00 0.03 0.00 76 1008.4
20260904155203 87 180 2.0 5.0 0.00 0.03 0.00 76 1008.5
20260904155102 88 188 2.0 5.0 0.00 0.03 0.00 76 1008.5
20260904155002 88 203 2.0 5.0 0.00 0.03 0.00 76 1008.4
20260904154902 88 185 2.0 5.0 0.00 0.03 0.00 75 1008.5
20260904154804 88 207 2.0 5.0 0.00 0.03 0.00 75 1008.4
20260904154702 88 169 3.0 5.0 0.00 0.03 0.00 75 1008.4
20260904154603 88 226 3.0 5.0 0.00 0.03 0.00 75 1008.4
20260904154502 88 135 1.0 4.0 0.00 0.03 0.00 75 1008.4
20260904154403 88 188 0.0 4.0 0.00 0.03 0.00 75 1008.3
20260904154304 88 188 1.0 4.0 0.00 0.03 0.00 75 1008.4
20260904154204 88 188 1.0 4.0 0.00 0.03 0.00 75 1008.4
20260904154102 88 188 1.0 4.0 0.00 0.03 0.00 74 1008.4
20260904154004 88 189 2.0 4.0 0.00 0.03 0.00 74 1008.3
20260904153901 88 157 2.0 4.0 0.00 0.03 0.00 74 1008.3
20260904153804 88 200 0.0 3.0 0.00 0.03 0.00 74 1008.3
20260904153704 88 171 0.0 3.0 0.00 0.03 0.00 74 1008.2
20260904153602 88 169 1.0 4.0 0.00 0.03 0.00 75 1008.2
20260904153504 88 152 1.0 4.0 0.00 0.03 0.00 75 1008.2
20260904153403 88 149 1.0 4.0 0.00 0.03 0.00 74 1008.3
20260904153304 88 149 1.0 4.0 0.00 0.03 0.00 74 1008.2
20260904153204 88 135 0.0 4.0 0.00 0.03 0.00 74 1008.2
20260904153104 88 134 1.0 4.0 0.00 0.03 0.00 75 1008.2
20260904153004 88 134 1.0 4.0 0.00 0.03 0.00 75 1008.3
20260904152903 88 133 1.0 4.0 0.00 0.03 0.00 75 1008.3
20260904152804 88 131 2.0 4.0 0.00 0.03 0.00 75 1008.3
20260904152704 88 130 1.0 4.0 0.00 0.03 0.00 75 1008.4
20260904152603 88 171 0.0 0.0 0.00 0.03 0.00 75 1008.4
20260904152503 88 171 0.0 1.0 0.00 0.03 0.00 75 1008.4
20260904152402 89 152 0.0 4.0 0.00 0.03 0.00 76 1008.4
20260904152306 88 145 0.0 5.0 0.00 0.03 0.00 76 1008.4
20260904152203 88 145 0.0 5.0 0.00 0.03 0.00 76 1008.4
20260904152103 88 145 0.0 6.0 0.00 0.03 0.00 76 1008.4
20260904152003 88 145 0.0 6.0 0.00 0.03 0.00 76 1008.4
20260904151903 88 142 0.0 6.0 0.00 0.03 0.00 76 1008.4
20260904151803 88 141 0.0 6.0 0.00 0.03 0.00 76 1008.3
20260904151703 88 140 0.0 6.0 0.00 0.03 0.00 76 1008.4
20260904151603 88 140 2.0 6.0 0.00 0.03 0.00 76 1008.3
20260904151503 88 147 3.0 6.0 0.00 0.03 0.00 76 1008.3
20260904151403 89 127 3.0 6.0 0.00 0.03 0.00 75 1008.2
20260904151303 89 107 3.0 6.0 0.00 0.03 0.00 75 1008.2
20260904151202 89 114 2.0 6.0 0.00 0.03 0.00 75 1008.3
20260904151102 89 117 2.0 6.0 0.00 0.03 0.00 76 1008.3
20260904151004 89 117 3.0 6.0 0.00 0.03 0.00 75 1008.2
20260904150904 89 94 3.0 6.0 0.00 0.03 0.00 75 1008.2
20260904150803 89 138 2.0 4.0 0.00 0.03 0.00 75 1008.2
20260904150702 89 154 1.0 4.0 0.00 0.03 0.00 75 1008.2
20260904150605 90 178 0.0 10.0 0.00 0.03 0.00 75 1008.2
20260904150502 90 178 0.0 10.0 0.00 0.03 0.00 75 1008.2
20260904150402 90 193 1.0 10.0 0.00 0.03 0.00 75 1008.2
20260904150302 89 196 1.0 10.0 0.00 0.03 0.00 75 1008.2
20260904150201 89 203 2.0 10.0 0.00 0.03 0.00 76 1008.2
20260904150004 89 137 3.0 10.0 0.00 0.03 0.00 75 1008.2
20260904145902 89 123 2.0 10.0 0.00 0.03 0.00 76 1008.2
20260904145804 89 165 4.0 10.0 0.00 0.03 0.00 76 1008.2
20260904145703 89 166 3.0 10.0 0.00 0.03 0.00 76 1008.1
20260904145602 89 79 0.0 6.0 0.00 0.03 0.00 76 1008.2
20260904145503 89 183 0.0 6.0 0.00 0.03 0.00 77 1008.2
20260904145404 89 185 0.0 6.0 0.00 0.03 0.00 75 1008.2
20260904145305 89 185 1.0 6.0 0.00 0.03 0.00 75 1008.2
20260904145203 89 186 1.0 6.0 0.00 0.03 0.00 75 1008.2
20260904145103 89 182 2.0 6.0 0.00 0.03 0.00 76 1008.3
20260904145002 89 173 3.0 6.0 0.00 0.03 0.00 76 1008.2
20260904144904 89 173 3.0 5.0 0.00 0.03 0.00 76 1008.2
20260904144803 89 169 2.0 6.0 0.00 0.03 0.00 77 1008.2
20260904144703 88 131 1.0 6.0 0.00 0.03 0.00 78 1008.3
20260904144605 88 144 0.0 6.0 0.00 0.03 0.00 76 1008.2
20260904144506 88 144 1.0 6.0 0.00 0.03 0.00 76 1008.2
20260904144404 88 144 2.0 6.0 0.00 0.03 0.00 76 1008.3
20260904144302 88 142 3.0 6.0 0.00 0.03 0.00 76 1008.3
20260904144203 88 141 2.0 6.0 0.00 0.03 0.00 77 1008.3
20260904144104 88 151 3.0 6.0 0.00 0.03 0.00 78 1008.3
20260904143959 87 130 4.0 6.0 0.00 0.03 0.00 78 1008.3
20260904143851 88 116 2.0 6.0 0.00 0.03 0.00 78 1008.3
20260904143749 88 171 0.0 6.0 0.00 0.03 0.00 78 1008.2
20260904143644 88 171 0.0 7.0 0.00 0.03 0.00 78 1008.2
20260904143543 88 164 1.0 7.0 0.00 0.03 0.00 79 1008.2
20260904143437 88 164 2.0 7.0 0.00 0.03 0.00 79 1008.2
20260904143337 88 145 3.0 7.0 0.00 0.03 0.00 79 1008.2
20260904143231 87 120 2.0 7.0 0.00 0.03 0.00 80 1008.2
20260904143132 87 128 2.0 7.0 0.00 0.03 0.00 80 1008.2
20260904143031 87 125 2.0 7.0 0.00 0.03 0.00 79 1008.2
20260904142931 87 124 3.0 7.0 0.00 0.03 0.00 79 1008.2
20260904142833 87 110 5.0 7.0 0.00 0.03 0.00 80 1008.2
20260904142731 87 87 5.0 7.0 0.00 0.03 0.00 80 1008.2
20260904142632 87 102 4.0 6.0 0.00 0.03 0.00 81 1008.3
20260904142533 87 121 4.0 6.0 0.00 0.03 0.00 81 1008.3
20260904142431 87 120 3.0 6.0 0.00 0.03 0.00 81 1008.3
20260904142332 87 99 3.0 6.0 0.00 0.03 0.00 81 1008.2
20260904142233 87 99 4.0 6.0 0.00 0.03 0.00 81 1008.3
20260904142131 87 130 4.0 9.0 0.00 0.03 0.00 81 1008.3
20260904142032 87 135 4.0 9.0 0.00 0.03 0.00 81 1008.3
20260904141932 87 113 4.0 9.0 0.00 0.03 0.00 82 1008.2
20260904141834 87 123 3.0 9.0 0.00 0.03 0.00 82 1008.2
20260904141732 87 154 2.0 9.0 0.00 0.03 0.00 82 1008.2
20260904141633 87 166 2.0 9.0 0.00 0.03 0.00 82 1008.2
20260904141531 86 113 3.0 9.0 0.00 0.03 0.00 83 1008.2
20260904141432 86 114 4.0 9.0 0.00 0.03 0.00 82 1008.2
20260904141331 86 104 5.0 9.0 0.00 0.03 0.00 82 1008.2
20260904141231 86 94 5.0 9.0 0.00 0.03 0.00 82 1008.2
20260904141133 86 107 4.0 7.0 0.00 0.03 0.00 82 1008.2
20260904141031 86 111 4.0 7.0 0.00 0.03 0.00 83 1008.2
20260904140931 86 75 3.0 7.0 0.00 0.03 0.00 83 1008.2
20260904140833 86 114 2.0 7.0 0.00 0.03 0.00 83 1008.2
20260904140731 86 116 4.0 7.0 0.00 0.03 0.00 83 1008.3
20260904140632 86 116 4.0 7.0 0.00 0.03 0.00 83 1008.2
20260904140528 86 110 4.0 7.0 0.00 0.03 0.00 83 1008.2
20260904140428 86 124 4.0 7.0 0.00 0.03 0.00 83 1008.3
20260904140325 86 109 5.0 7.0 0.00 0.03 0.00 83 1008.3
20260904140224 86 79 4.0 7.0 0.00 0.03 0.00 84 1008.2
20260904140111 86 76 4.0 7.0 0.00 0.03 0.00 83 1008.3
20260904140012 86 102 3.0 7.0 0.00 0.03 0.00 83 1008.2
20260904135910 86 96 4.0 7.0 0.00 0.03 0.00 83 1008.2
20260904135811 86 75 5.0 7.0 0.00 0.03 0.00 84 1008.3
20260904135710 86 100 3.0 6.0 0.00 0.03 0.00 84 1008.2
20260904135610 86 107 2.0 6.0 0.00 0.03 0.00 84 1008.2
20260904135511 86 89 3.0 6.0 0.00 0.03 0.00 84 1008.2
20260904135409 86 86 4.0 6.0 0.00 0.03 0.00 84 1008.2
20260904135311 85 100 4.0 6.0 0.00 0.03 0.00 84 1008.2
20260904135209 85 94 2.0 5.0 0.00 0.03 0.00 84 1008.2
20260904135110 85 78 2.0 5.0 0.00 0.03 0.00 85 1008.2
20260904135011 85 96 2.0 5.0 0.00 0.03 0.00 85 1008.2
20260904134910 85 97 3.0 5.0 0.00 0.03 0.00 85 1008.2
20260904134809 85 97 3.0 5.0 0.00 0.03 0.00 85 1008.2
20260904134710 85 96 3.0 6.0 0.00 0.03 0.00 84 1008.1
20260904134609 85 111 4.0 6.0 0.00 0.03 0.00 84 1008.2
20260904134509 85 109 4.0 6.0 0.00 0.03 0.00 85 1008.2
20260904134410 85 80 3.0 6.0 0.00 0.03 0.00 85 1008.1
20260904134310 85 104 3.0 6.0 0.00 0.03 0.00 85 1008.1
20260904134210 85 106 3.0 6.0 0.00 0.03 0.00 85 1008.1
20260904134109 85 83 4.0 6.0 0.00 0.03 0.00 85 1008.1
20260904134009 85 82 4.0 6.0 0.00 0.03 0.00 85 1008.2
20260904133909 85 85 4.0 6.0 0.00 0.03 0.00 85 1008.2
20260904133809 85 103 3.0 6.0 0.00 0.03 0.00 85 1008.2
20260904133710 85 99 3.0 5.0 0.00 0.03 0.00 85 1008.2
20260904133608 85 102 3.0 5.0 0.00 0.03 0.00 85 1008.2
20260904133511 85 103 3.0 5.0 0.00 0.03 0.00 85 1008.2
20260904133411 85 104 4.0 5.0 0.00 0.03 0.00 85 1008.2
20260904133309 85 106 4.0 5.0 0.00 0.03 0.00 85 1008.2
20260904133208 85 113 4.0 5.0 0.00 0.03 0.00 86 1008.2
20260904133110 85 93 3.0 5.0 0.00 0.03 0.00 86 1008.1
20260904133009 84 111 3.0 6.0 0.00 0.03 0.00 86 1008.1
20260904132909 84 114 3.0 6.0 0.00 0.03 0.00 86 1008.1
20260904132810 84 97 3.0 6.0 0.00 0.03 0.00 87 1008.1
20260904132711 84 59 3.0 6.0 0.00 0.03 0.00 87 1008.1
20260904132610 84 92 4.0 6.0 0.00 0.03 0.00 87 1008.0
20260904132510 84 90 4.0 6.0 0.00 0.03 0.00 87 1008.0
20260904132408 84 113 4.0 6.0 0.00 0.03 0.00 87 1008.0
20260904132310 84 116 4.0 6.0 0.00 0.03 0.00 87 1007.9
20260904132210 84 103 4.0 6.0 0.00 0.03 0.00 87 1008.0
20260904132110 84 106 4.0 6.0 0.00 0.03 0.00 87 1007.9
20260904132008 84 99 3.0 5.0 0.00 0.03 0.00 87 1007.9
20260904131908 84 96 4.0 5.0 0.00 0.03 0.00 87 1007.9
20260904131810 84 110 3.0 5.0 0.00 0.03 0.00 87 1007.8
20260904131709 84 97 2.0 5.0 0.00 0.03 0.00 88 1007.9
20260904131609 83 93 3.0 5.0 0.00 0.03 0.00 88 1007.9
20260904131510 83 99 3.0 5.0 0.00 0.03 0.00 88 1007.9
20260904131409 83 94 2.0 5.0 0.00 0.03 0.00 89 1007.9
20260904131310 83 92 2.0 5.0 0.00 0.03 0.00 89 1007.9
20260904131209 83 90 3.0 5.0 0.00 0.03 0.00 89 1007.9
20260904131111 83 85 3.0 5.0 0.00 0.03 0.00 89 1007.9
20260904131010 83 107 3.0 5.0 0.00 0.03 0.00 89 1007.8
20260904130908 83 107 1.0 4.0 0.00 0.03 0.00 89 1007.9
20260904130809 83 106 2.0 4.0 0.00 0.03 0.00 90 1007.8
20260904130708 82 106 2.0 4.0 0.00 0.03 0.00 90 1007.8
20260904130608 82 106 1.0 4.0 0.00 0.03 0.00 90 1007.8
20260904130507 82 106 1.0 4.0 0.00 0.03 0.00 90 1007.7
20260904130409 82 107 2.0 4.0 0.00 0.03 0.00 90 1007.8
20260904130307 82 107 2.0 4.0 0.00 0.03 0.00 90 1007.7
20260904130208 82 106 3.0 4.0 0.00 0.03 0.00 90 1007.7
20260904130107 82 107 3.0 4.0 0.00 0.03 0.00 91 1007.8
20260904130009 82 113 2.0 4.0 0.00 0.03 0.00 91 1007.8
20260904125909 82 113 2.0 4.0 0.00 0.03 0.00 91 1007.8
20260904125809 82 113 2.0 4.0 0.00 0.03 0.00 91 1007.8
20260904125708 81 117 2.0 4.0 0.00 0.03 0.00 91 1007.8
20260904125607 81 118 3.0 4.0 0.00 0.03 0.00 91 1007.8
20260904125508 81 118 2.0 4.0 0.00 0.03 0.00 91 1007.8
20260904125408 81 120 2.0 3.0 0.00 0.03 0.00 91 1007.8
20260904125309 81 120 3.0 3.0 0.00 0.03 0.00 91 1007.8
20260904125208 81 120 3.0 3.0 0.00 0.03 0.00 92 1007.8
20260904125108 81 124 2.0 3.0 0.00 0.03 0.00 92 1007.8
20260904125008 81 124 2.0 3.0 0.00 0.03 0.00 92 1007.7
20260904124909 81 124 1.0 2.0 0.00 0.03 0.00 92 1007.8
20260904124808 81 124 1.0 2.0 0.00 0.03 0.00 92 1007.7
20260904124708 81 124 1.0 2.0 0.00 0.03 0.00 92 1007.7
20260904124608 81 124 1.0 3.0 0.00 0.03 0.00 92 1007.7
20260904124508 80 124 2.0 3.0 0.00 0.03 0.00 92 1007.7
20260904124408 80 124 1.0 3.0 0.00 0.03 0.00 92 1007.7
20260904124308 80 124 0.0 3.0 0.00 0.03 0.00 92 1007.7
20260904124208 80 124 0.0 3.0 0.00 0.03 0.00 92 1007.6
20260904124108 80 124 0.0 3.0 0.00 0.03 0.00 92 1007.6
20260904124007 80 124 1.0 3.0 0.00 0.03 0.00 92 1007.6
20260904123909 80 124 1.0 3.0 0.00 0.03 0.00 92 1007.6
20260904123807 80 124 1.0 3.0 0.00 0.03 0.00 92 1007.6
20260904123710 80 124 1.0 3.0 0.00 0.03 0.00 92 1007.5
20260904123608 80 125 0.0 0.0 0.00 0.03 0.00 92 1007.6
20260904123508 80 125 0.0 0.0 0.00 0.03 0.00 92 1007.5
20260904123407 80 125 0.0 0.0 0.00 0.03 0.00 92 1007.6
20260904123309 80 125 0.0 0.0 0.00 0.03 0.00 92 1007.6
20260904123207 80 125 0.0 0.0 0.00 0.03 0.00 92 1007.5
20260904123107 80 125 0.0 1.0 0.00 0.03 0.00 92 1007.5
20260904123009 80 125 0.0 1.0 0.00 0.03 0.00 92 1007.5
20260904122908 80 125 0.0 2.0 0.00 0.03 0.00 92 1007.5
20260904122807 80 125 0.0 2.0 0.00 0.03 0.00 92 1007.5
20260904122708 80 125 0.0 2.0 0.00 0.03 0.00 92 1007.4
20260904122607 80 125 0.0 2.0 0.00 0.03 0.00 92 1007.5
20260904122507 80 125 0.0 2.0 0.00 0.03 0.00 92 1007.4
20260904122409 80 125 0.0 2.0 0.00 0.03 0.00 92 1007.4
20260904122307 80 125 0.0 2.0 0.00 0.03 0.00 92 1007.4
20260904122208 80 125 0.0 2.0 0.00 0.03 0.00 92 1007.3
20260904122106 80 125 0.0 2.0 0.00 0.03 0.00 92 1007.3
20260904122007 80 125 0.0 2.0 0.00 0.03 0.00 92 1007.4
20260904121908 80 125 0.0 2.0 0.00 0.03 0.00 92 1007.4
20260904121806 80 125 0.0 2.0 0.00 0.03 0.00 92 1007.3
20260904121706 80 125 0.0 2.0 0.00 0.03 0.00 92 1007.3
20260904121606 80 125 0.0 2.0 0.00 0.03 0.00 92 1007.3
20260904121507 80 125 1.0 2.0 0.00 0.03 0.00 92 1007.4
20260904121407 80 125 2.0 2.0 0.00 0.03 0.00 92 1007.4
20260904121308 80 125 1.0 2.0 0.00 0.03 0.00 92 1007.4
20260904121206 80 125 0.0 1.0 0.00 0.03 0.00 92 1007.4
20260904121108 80 125 0.0 0.0 0.00 0.03 0.00 92 1007.3
20260904121007 80 125 0.0 0.0 0.00 0.03 0.00 92 1007.3
20260904120906 80 125 0.0 0.0 0.00 0.03 0.00 92 1007.3
20260904120806 80 125 0.0 0.0 0.00 0.03 0.00 92 1007.2
20260904120709 80 125 0.0 0.0 0.00 0.03 0.00 92 1007.2
20260904120606 80 125 0.0 0.0 0.00 0.03 0.00 92 1007.2
20260904120506 80 125 0.0 0.0 0.00 0.03 0.00 92 1007.2
20260904120406 80 125 0.0 0.0 0.00 0.03 0.00 92 1007.2
20260904120307 80 125 0.0 0.0 0.00 0.03 0.00 92 1007.3
20260904120207 80 125 0.0 0.0 0.00 0.03 0.00 92 1007.2
20260904120106 80 125 0.0 0.0 0.00 0.03 0.00 92 1007.2
20260904120007 80 125 0.0 0.0 0.00 0.03 0.00 92 1007.2
20260904115906 80 125 0.0 0.0 0.00 0.03 0.00 92 1007.2
20260904115806 80 125 0.0 0.0 0.00 0.03 0.00 92 1007.2
20260904115707 80 125 0.0 0.0 0.00 0.03 0.00 92 1007.2
20260904115606 80 125 0.0 0.0 0.00 0.03 0.00 92 1007.2
20260904115506 80 125 0.0 0.0 0.00 0.03 0.00 92 1007.2
20260904115406 80 125 0.0 0.0 0.00 0.03 0.00 92 1007.2
20260904115307 80 125 0.0 0.0 0.00 0.03 0.00 91 1007.2
20260904115208 80 125 0.0 0.0 0.00 0.03 0.00 91 1007.3
20260904115106 80 125 0.0 0.0 0.00 0.03 0.00 91 1007.2
20260904115006 80 125 0.0 0.0 0.00 0.03 0.00 91 1007.2
20260904114906 80 125 0.0 0.0 0.00 0.03 0.00 91 1007.2
20260904114806 80 125 0.0 0.0 0.00 0.03 0.00 91 1007.2
20260904114706 80 125 0.0 0.0 0.00 0.03 0.00 91 1007.2
20260904114606 80 125 0.0 0.0 0.00 0.03 0.00 91 1007.2
20260904114506 80 125 0.0 0.0 0.00 0.03 0.00 91 1007.3
20260904114407 80 125 0.0 0.0 0.00 0.03 0.00 91 1007.3
20260904114306 80 125 0.0 0.0 0.00 0.03 0.00 91 1007.3
20260904114205 80 125 0.0 0.0 0.00 0.03 0.00 91 1007.2
20260904114107 80 125 0.0 0.0 0.00 0.03 0.00 91 1007.3
20260904114006 80 125 0.0 0.0 0.00 0.03 0.00 91 1007.3
20260904113906 80 125 0.0 0.0 0.00 0.03 0.00 91 1007.3
20260904113805 80 125 0.0 0.0 0.00 0.03 0.00 91 1007.2
20260904113705 80 125 0.0 0.0 0.00 0.03 0.00 91 1007.2
20260904113607 80 125 0.0 0.0 0.00 0.03 0.00 91 1007.3
20260904113506 80 125 0.0 0.0 0.00 0.03 0.00 91 1007.3
20260904113406 80 125 0.0 0.0 0.00 0.03 0.00 91 1007.3
20260904113305 80 125 0.0 0.0 0.00 0.03 0.00 91 1007.2
20260904113206 80 125 0.0 0.0 0.00 0.03 0.00 91 1007.2
20260904113105 80 125 0.0 0.0 0.00 0.03 0.00 91 1007.2
20260904113005 80 125 0.0 0.0 0.00 0.03 0.00 92 1007.3
20260904112905 80 125 0.0 0.0 0.00 0.03 0.00 92 1007.2
20260904112807 80 125 0.0 0.0 0.00 0.03 0.00 92 1007.2
20260904112707 80 125 0.0 0.0 0.00 0.03 0.00 92 1007.1
20260904112605 80 125 0.0 0.0 0.00 0.03 0.00 92 1007.0
20260904112506 80 125 0.0 0.0 0.00 0.03 0.00 92 1007.1
20260904112405 80 125 0.0 0.0 0.00 0.03 0.00 92 1007.0
20260904112307 80 125 0.0 0.0 0.00 0.03 0.00 92 1007.0
20260904112205 80 125 0.0 0.0 0.00 0.03 0.00 92 1007.0
20260904112105 80 125 0.0 0.0 0.00 0.03 0.00 91 1007.0
20260904112006 80 125 0.0 0.0 0.00 0.03 0.00 91 1007.0
20260904111907 80 125 0.0 0.0 0.00 0.03 0.00 91 1007.0
20260904111806 80 125 0.0 0.0 0.00 0.03 0.00 91 1007.0
20260904111706 80 125 0.0 0.0 0.00 0.03 0.00 91 1007.0
20260904111607 80 125 0.0 0.0 0.00 0.03 0.00 91 1007.0
20260904111505 80 125 0.0 0.0 0.00 0.03 0.00 91 1007.1
20260904111407 80 125 0.0 0.0 0.00 0.03 0.00 91 1007.0
20260904111305 80 125 0.0 0.0 0.00 0.03 0.00 91 1007.0
20260904111205 80 125 0.0 0.0 0.00 0.03 0.00 91 1007.1
20260904111105 80 125 0.0 0.0 0.00 0.03 0.00 91 1007.0
20260904111005 80 125 0.0 0.0 0.00 0.03 0.00 91 1007.0
20260904110906 80 125 0.0 0.0 0.00 0.03 0.00 91 1007.0
20260904110805 80 125 0.0 0.0 0.00 0.03 0.00 91 1007.0
20260904110705 80 125 0.0 0.0 0.00 0.03 0.00 91 1007.0
20260904110605 80 125 0.0 0.0 0.00 0.03 0.00 91 1007.0
20260904110505 80 125 0.0 0.0 0.00 0.03 0.00 91 1007.1
20260904110405 80 125 0.0 0.0 0.00 0.03 0.00 91 1007.0
20260904110305 80 125 0.0 0.0 0.00 0.03 0.00 91 1007.0
20260904110205 80 125 0.0 0.0 0.00 0.03 0.00 91 1007.0
20260904110106 80 125 0.0 0.0 0.00 0.03 0.00 91 1007.1
20260904110006 80 125 0.0 0.0 0.00 0.03 0.00 91 1007.1
20260904105904 80 125 0.0 0.0 0.00 0.03 0.00 91 1007.1
20260904105804 80 125 0.0 0.0 0.00 0.03 0.00 91 1007.1
20260904105705 80 125 0.0 0.0 0.00 0.03 0.00 91 1007.1
20260904105604 80 125 0.0 0.0 0.00 0.03 0.00 91 1007.0
20260904105505 80 125 0.0 0.0 0.00 0.03 0.00 91 1007.1
20260904105406 80 125 0.0 0.0 0.00 0.03 0.00 91 1007.1
20260904105306 80 125 0.0 0.0 0.00 0.03 0.00 91 1007.1
20260904105204 80 125 0.0 0.0 0.00 0.03 0.00 91 1007.1
20260904105104 80 125 0.0 0.0 0.00 0.03 0.00 91 1007.0
20260904105005 80 125 0.0 0.0 0.00 0.03 0.00 91 1007.0
20260904104905 80 125 0.0 0.0 0.00 0.03 0.00 91 1007.0
20260904104805 80 125 0.0 0.0 0.00 0.03 0.00 91 1007.1
20260904104707 80 125 0.0 0.0 0.00 0.03 0.00 91 1007.1
20260904104605 80 125 0.0 0.0 0.00 0.03 0.00 91 1007.0
20260904104505 80 125 0.0 0.0 0.00 0.03 0.00 91 1007.0
20260904104404 80 125 0.0 0.0 0.00 0.03 0.00 91 1007.1
20260904104306 80 125 0.0 0.0 0.00 0.03 0.00 91 1007.1
20260904104204 80 125 0.0 0.0 0.00 0.03 0.00 91 1007.1
20260904104104 80 125 0.0 0.0 0.00 0.03 0.00 91 1007.1
20260904104006 80 125 0.0 0.0 0.00 0.03 0.00 90 1007.0
20260904103904 80 125 0.0 0.0 0.00 0.03 0.00 90 1007.0
20260904103804 80 125 0.0 0.0 0.00 0.03 0.00 90 1007.0
20260904103704 80 125 0.0 0.0 0.00 0.03 0.00 90 1007.0
20260904103604 80 125 0.0 0.0 0.00 0.03 0.00 90 1007.0
20260904103506 80 125 0.0 0.0 0.00 0.03 0.00 90 1007.0
20260904103405 80 125 0.0 0.0 0.00 0.03 0.00 90 1006.9
20260904103306 80 125 0.0 0.0 0.00 0.03 0.00 90 1006.9
20260904103204 80 125 0.0 0.0 0.00 0.03 0.00 90 1006.9
20260904103106 80 125 0.0 0.0 0.00 0.03 0.00 90 1006.9
20260904103004 80 125 0.0 0.0 0.00 0.03 0.00 90 1007.0
20260904102904 80 125 0.0 0.0 0.00 0.03 0.00 90 1006.9
20260904102804 80 125 0.0 0.0 0.00 0.03 0.00 90 1007.0
20260904102704 80 125 0.0 0.0 0.00 0.03 0.00 90 1006.9
20260904102605 80 125 0.0 0.0 0.00 0.03 0.00 90 1006.9
20260904102505 80 125 0.0 0.0 0.00 0.03 0.00 90 1006.9
20260904102406 80 125 0.0 0.0 0.00 0.03 0.00 90 1006.9
20260904102306 80 125 0.0 0.0 0.00 0.03 0.00 90 1006.9
20260904102204 80 125 0.0 0.0 0.00 0.03 0.00 90 1006.9
20260904102105 80 125 0.0 0.0 0.00 0.03 0.00 90 1006.9
20260904102005 80 125 0.0 0.0 0.00 0.03 0.00 90 1006.8
20260904101906 80 125 0.0 0.0 0.00 0.03 0.00 90 1006.8
20260904101803 80 125 0.0 0.0 0.00 0.03 0.00 90 1006.8
20260904101706 80 125 0.0 0.0 0.00 0.03 0.00 90 1006.7
20260904101604 80 125 0.0 0.0 0.00 0.03 0.00 90 1006.7
20260904101504 80 125 0.0 0.0 0.00 0.03 0.00 90 1006.7
20260904101403 81 125 0.0 0.0 0.00 0.03 0.00 90 1006.7
20260904101305 81 125 0.0 0.0 0.00 0.03 0.00 90 1006.6
20260904101205 81 125 0.0 0.0 0.00 0.03 0.00 90 1006.6
20260904101103 81 125 0.0 0.0 0.00 0.03 0.00 90 1006.7
20260904101004 81 125 0.0 0.0 0.00 0.03 0.00 90 1006.7
20260904100905 81 125 0.0 0.0 0.00 0.03 0.00 90 1006.7
20260904100804 81 125 0.0 0.0 0.00 0.03 0.00 90 1006.7
20260904100704 81 125 0.0 0.0 0.00 0.03 0.00 90 1006.6
20260904100603 81 125 0.0 0.0 0.00 0.03 0.00 90 1006.6
20260904100504 81 125 0.0 0.0 0.00 0.03 0.00 90 1006.6
20260904100404 81 125 0.0 0.0 0.00 0.03 0.00 90 1006.7
20260904100303 81 125 0.0 0.0 0.00 0.03 0.00 90 1006.7
20260904100203 81 125 0.0 0.0 0.00 0.03 0.00 90 1006.7
20260904100104 81 125 0.0 0.0 0.00 0.03 0.00 90 1006.7
20260904100004 81 125 0.0 0.0 0.00 0.03 0.00 90 1006.7
20260904095904 81 125 0.0 0.0 0.00 0.03 0.00 90 1006.7
20260904095803 81 125 0.0 0.0 0.00 0.03 0.00 90 1006.7
20260904095703 81 125 0.0 0.0 0.00 0.03 0.00 90 1006.6
20260904095604 81 125 0.0 0.0 0.00 0.03 0.00 90 1006.7
20260904095504 81 125 0.0 0.0 0.00 0.03 0.00 90 1006.6
20260904095404 81 125 0.0 1.0 0.00 0.03 0.00 90 1006.7
20260904095306 81 125 0.0 1.0 0.00 0.03 0.00 90 1006.7
20260904095203 81 125 0.0 1.0 0.00 0.03 0.00 90 1006.6
20260904095104 81 125 0.0 1.0 0.00 0.03 0.00 90 1006.6
20260904095004 81 125 0.0 1.0 0.00 0.03 0.00 90 1006.7
20260904094903 81 125 0.0 1.0 0.00 0.03 0.00 90 1006.6
20260904094805 81 125 0.0 1.0 0.00 0.03 0.00 90 1006.6
20260904094703 81 125 0.0 1.0 0.00 0.03 0.00 89 1006.6
20260904094603 81 125 0.0 2.0 0.00 0.03 0.00 89 1006.6
20260904094505 81 125 0.0 2.0 0.00 0.03 0.00 89 1006.6
20260904094404 81 125 0.0 2.0 0.00 0.03 0.00 89 1006.6
20260904094303 81 125 0.0 2.0 0.00 0.03 0.00 89 1006.6
20260904094203 81 125 0.0 2.0 0.00 0.03 0.00 90 1006.6
20260904094103 81 125 0.0 2.0 0.00 0.03 0.00 89 1006.7
20260904094004 81 125 0.0 2.0 0.00 0.03 0.00 89 1006.6
20260904093905 81 125 0.0 2.0 0.00 0.03 0.00 90 1006.5
20260904093803 81 125 0.0 2.0 0.00 0.03 0.00 90 1006.6
20260904093702 81 125 0.0 2.0 0.00 0.03 0.00 90 1006.6
20260904093603 81 123 0.0 2.0 0.00 0.03 0.00 89 1006.5
20260904093503 81 123 0.0 2.0 0.00 0.03 0.00 89 1006.6
20260904093403 81 123 1.0 2.0 0.00 0.03 0.00 90 1006.6
20260904093302 81 120 0.0 2.0 0.00 0.03 0.00 90 1006.5
20260904093203 81 120 0.0 2.0 0.00 0.03 0.00 90 1006.6
20260904093103 81 120 1.0 2.0 0.00 0.03 0.00 90 1006.5
20260904093005 81 120 1.0 2.0 0.00 0.03 0.00 90 1006.5
20260904092902 81 120 0.0 2.0 0.00 0.03 0.00 90 1006.5
20260904092803 81 120 1.0 2.0 0.00 0.03 0.00 90 1006.4
20260904092702 81 120 1.0 2.0 0.00 0.03 0.00 90 1006.4
20260904092603 81 120 1.0 2.0 0.00 0.03 0.00 90 1006.5
20260904092453 81 120 1.0 2.0 0.00 0.03 0.00 90 1006.5
20260904092352 81 120 1.0 2.0 0.00 0.03 0.00 90 1006.4
20260904092249 81 120 1.0 2.0 0.00 0.03 0.00 90 1006.5
20260904092148 81 120 1.0 2.0 0.00 0.03 0.00 90 1006.4
20260904092047 81 120 2.0 2.0 0.00 0.03 0.00 90 1006.5
20260904091945 81 120 1.0 2.0 0.00 0.03 0.00 90 1006.5
20260904091844 81 120 1.0 2.0 0.00 0.03 0.00 90 1006.5
20260904091732 81 120 0.0 2.0 0.00 0.03 0.00 90 1006.5
20260904091633 81 120 0.0 2.0 0.00 0.03 0.00 90 1006.5
20260904091531 81 120 0.0 2.0 0.00 0.03 0.00 90 1006.5
20260904091433 81 120 1.0 2.0 0.00 0.03 0.00 89 1006.5
20260904091330 81 120 1.0 2.0 0.00 0.03 0.00 90 1006.5
20260904091233 81 120 1.0 2.0 0.00 0.03 0.00 90 1006.5
20260904091132 81 120 0.0 2.0 0.00 0.03 0.00 90 1006.5
20260904091032 81 120 0.0 2.0 0.00 0.03 0.00 90 1006.5
20260904090930 81 120 0.0 2.0 0.00 0.03 0.00 90 1006.5
20260904090829 81 120 0.0 3.0 0.00 0.03 0.00 90 1006.5
20260904090722 81 120 0.0 3.0 0.00 0.03 0.00 90 1006.5
20260904090611 81 120 0.0 3.0 0.00 0.03 0.00 90 1006.4
20260904090503 81 120 0.0 3.0 0.00 0.03 0.00 90 1006.4
20260904090403 81 120 1.0 3.0 0.00 0.03 0.00 90 1006.5
20260904090301 81 120 0.0 3.0 0.00 0.03 0.00 90 1006.5
20260904090203 81 120 0.0 3.0 0.00 0.03 0.00 90 1006.5
20260904090057 81 120 1.0 3.0 0.00 0.03 0.00 90 1006.6
20260904085956 81 120 2.0 3.0 0.00 0.03 0.00 90 1006.5
20260904085843 81 120 1.0 3.0 0.00 0.03 0.00 90 1006.5
20260904085744 81 120 1.0 3.0 0.00 0.03 0.00 90 1006.5
20260904085631 81 120 1.0 3.0 0.00 0.03 0.00 90 1006.5
20260904085533 81 120 0.0 3.0 0.00 0.03 0.00 90 1006.5
20260904085430 81 155 0.0 0.0 0.00 0.03 0.00 90 1006.6
20260904085327 81 155 0.0 0.0 0.00 0.03 0.00 90 1006.6
20260904085225 81 155 0.0 0.0 0.00 0.03 0.00 90 1006.6
20260904085117 81 155 0.0 0.0 0.00 0.03 0.00 90 1006.6
20260904085010 81 155 0.0 0.0 0.00 0.03 0.00 90 1006.6
20260904084903 81 155 0.0 0.0 0.00 0.03 0.00 90 1006.6
20260904084804 81 155 0.0 0.0 0.00 0.03 0.00 90 1006.6
20260904084702 81 155 0.0 0.0 0.00 0.03 0.00 90 1006.6
20260904084602 81 155 0.0 0.0 0.00 0.03 0.00 90 1006.6
20260904084503 81 155 0.0 0.0 0.00 0.03 0.00 90 1006.6
20260904084403 81 155 0.0 0.0 0.00 0.03 0.00 90 1006.6
20260904084303 81 155 0.0 0.0 0.00 0.03 0.00 90 1006.6
20260904084204 81 155 0.0 0.0 0.00 0.03 0.00 90 1006.7
20260904084103 81 155 0.0 0.0 0.00 0.03 0.00 90 1006.6
20260904084005 81 155 0.0 0.0 0.00 0.03 0.00 90 1006.5
20260904083903 81 155 0.0 0.0 0.00 0.03 0.00 90 1006.6
20260904083804 81 155 0.0 0.0 0.00 0.03 0.00 89 1006.6
20260904083703 81 155 0.0 0.0 0.00 0.03 0.00 89 1006.7
20260904083603 81 155 0.0 0.0 0.00 0.03 0.00 89 1006.6
20260904083503 81 155 0.0 0.0 0.00 0.03 0.00 89 1006.5
20260904083402 81 155 0.0 0.0 0.00 0.03 0.00 89 1006.6
20260904083302 81 155 0.0 0.0 0.00 0.03 0.00 89 1006.5
20260904083201 81 155 0.0 0.0 0.00 0.03 0.00 89 1006.6
20260904083102 81 155 0.0 0.0 0.00 0.03 0.00 89 1006.6
20260904083001 81 155 0.0 0.0 0.00 0.03 0.00 89 1006.6
20260904082902 81 155 0.0 0.0 0.00 0.03 0.00 89 1006.6
20260904082802 81 155 0.0 0.0 0.00 0.03 0.00 89 1006.6
20260904082703 81 155 0.0 0.0 0.00 0.03 0.00 89 1006.6
20260904082603 81 155 0.0 0.0 0.00 0.03 0.00 89 1006.6
20260904082502 81 155 0.0 0.0 0.00 0.03 0.00 89 1006.7
20260904082401 81 155 0.0 0.0 0.00 0.03 0.00 89 1006.7
20260904082305 81 155 0.0 0.0 0.00 0.03 0.00 89 1006.6
20260904082202 81 155 0.0 0.0 0.00 0.03 0.00 89 1006.7
20260904082103 81 155 0.0 0.0 0.00 0.03 0.00 89 1006.7
20260904082003 81 155 0.0 0.0 0.00 0.03 0.00 89 1006.7
20260904081901 81 155 0.0 0.0 0.00 0.03 0.00 89 1006.6
20260904081802 81 155 0.0 0.0 0.00 0.03 0.00 89 1006.7
20260904081702 81 155 0.0 0.0 0.00 0.03 0.00 89 1006.7
20260904081602 81 155 0.0 0.0 0.00 0.03 0.00 89 1006.7
20260904081501 81 155 0.0 0.0 0.00 0.03 0.00 89 1006.7
20260904081402 81 155 0.0 0.0 0.00 0.03 0.00 89 1006.7
20260904081302 81 155 0.0 0.0 0.00 0.03 0.00 89 1006.7
20260904081202 81 155 0.0 0.0 0.00 0.03 0.00 89 1006.7
20260904081102 81 155 0.0 0.0 0.00 0.03 0.00 89 1006.8
20260904081001 81 155 0.0 0.0 0.00 0.03 0.00 89 1006.8
20260904080901 81 155 0.0 0.0 0.00 0.03 0.00 89 1006.8
20260904080802 81 155 0.0 0.0 0.00 0.03 0.00 89 1006.8
20260904080650 81 155 0.0 0.0 0.00 0.03 0.00 89 1006.9
20260904080546 81 155 0.0 0.0 0.00 0.03 0.00 89 1006.8
20260904080447 81 155 0.0 0.0 0.00 0.03 0.00 89 1006.8
20260904080349 81 155 0.0 0.0 0.00 0.03 0.00 89 1006.9
20260904080239 81 155 0.0 0.0 0.00 0.03 0.00 89 1006.8
20260904080139 81 155 0.0 0.0 0.00 0.03 0.00 89 1006.8
20260904080035 81 155 0.0 0.0 0.00 0.03 0.00 89 1006.8
20260904075932 81 155 0.0 0.0 0.00 0.03 0.00 89 1006.8
20260904075832 81 155 0.0 0.0 0.00 0.03 0.00 89 1006.9
20260904075732 81 155 0.0 0.0 0.00 0.03 0.00 89 1006.8
20260904075632 81 155 0.0 0.0 0.00 0.03 0.00 89 1006.8
20260904075532 81 155 0.0 0.0 0.00 0.03 0.00 89 1006.9
20260904075431 81 155 0.0 0.0 0.00 0.03 0.00 89 1006.8
20260904075332 81 155 0.0 0.0 0.00 0.03 0.00 89 1006.9
20260904075207 81 155 0.0 0.0 0.00 0.03 0.00 89 1006.8
20260904075103 81 155 0.0 0.0 0.00 0.03 0.00 89 1006.9
20260904075004 81 155 0.0 0.0 0.00 0.03 0.00 89 1006.9
20260904074903 81 155 0.0 0.0 0.00 0.03 0.00 89 1006.9
20260904074804 81 155 0.0 0.0 0.00 0.03 0.00 89 1006.9
20260904074702 81 155 0.0 0.0 0.00 0.03 0.00 89 1006.8
20260904074602 81 155 0.0 0.0 0.00 0.03 0.00 89 1006.8
20260904074503 81 155 0.0 0.0 0.00 0.03 0.00 89 1006.8
20260904074402 81 155 0.0 0.0 0.00 0.03 0.00 89 1006.7
20260904074302 81 155 0.0 0.0 0.00 0.03 0.00 89 1006.8
20260904074203 81 155 0.0 0.0 0.00 0.03 0.00 89 1006.8
20260904074103 81 155 0.0 0.0 0.00 0.03 0.00 89 1006.8
20260904074002 81 155 0.0 0.0 0.00 0.03 0.00 89 1006.8
20260904073902 81 155 0.0 0.0 0.00 0.03 0.00 89 1006.8
20260904073802 81 155 0.0 0.0 0.00 0.03 0.00 89 1006.9
20260904073702 81 155 0.0 0.0 0.00 0.03 0.00 89 1006.9
20260904073602 81 155 0.0 0.0 0.00 0.03 0.00 89 1006.8
20260904073503 81 155 0.0 0.0 0.00 0.03 0.00 89 1006.9
20260904073402 81 155 0.0 0.0 0.00 0.03 0.00 89 1006.9
20260904073302 81 155 0.0 0.0 0.00 0.03 0.00 89 1006.9
20260904073203 81 155 0.0 0.0 0.00 0.03 0.00 89 1006.8
20260904073102 81 155 0.0 0.0 0.00 0.03 0.00 89 1006.8
20260904073004 81 155 0.0 0.0 0.00 0.03 0.00 89 1006.9
20260904072902 81 155 0.0 0.0 0.00 0.03 0.00 89 1006.9
20260904072803 81 155 0.0 2.0 0.00 0.03 0.00 89 1006.9
20260904072702 81 157 0.0 2.0 0.00 0.03 0.00 89 1007.0
20260904072602 81 157 0.0 2.0 0.00 0.03 0.00 89 1006.9
20260904072503 81 157 0.0 2.0 0.00 0.03 0.00 89 1006.9
20260904072402 81 157 0.0 2.0 0.00 0.03 0.00 89 1006.9
20260904072305 81 157 0.0 2.0 0.00 0.03 0.00 89 1006.9
20260904072203 81 157 0.0 2.0 0.00 0.03 0.00 89 1006.9
20260904072102 81 157 0.0 2.0 0.00 0.03 0.00 89 1006.9
20260904072003 81 157 0.0 2.0 0.00 0.03 0.00 89 1007.0
20260904071905 81 157 1.0 2.0 0.00 0.03 0.00 89 1006.9
20260904071803 81 157 0.0 2.0 0.00 0.03 0.00 89 1006.9
20260904071702 81 157 0.0 1.0 0.00 0.03 0.00 89 1006.9
20260904071559 81 157 0.0 1.0 0.00 0.03 0.00 89 1006.9
20260904071500 81 157 0.0 1.0 0.00 0.03 0.00 89 1006.9
20260904071359 81 157 0.0 1.0 0.00 0.03 0.00 89 1006.9
20260904071301 81 157 0.0 1.0 0.00 0.03 0.00 89 1007.0
20260904071200 81 157 0.0 1.0 0.00 0.03 0.00 89 1007.0
20260904071101 81 157 0.0 1.0 0.00 0.03 0.00 89 1007.0
20260904071000 81 157 0.0 1.0 0.00 0.03 0.00 89 1007.0
20260904070859 81 157 0.0 1.0 0.00 0.03 0.00 89 1007.0
20260904070759 81 157 0.0 1.0 0.00 0.03 0.00 89 1007.0
20260904070700 81 157 0.0 1.0 0.00 0.03 0.00 89 1007.1
20260904070601 81 157 0.0 1.0 0.00 0.03 0.00 89 1007.0
20260904070500 81 157 0.0 1.0 0.00 0.03 0.00 89 1007.0
20260904070400 81 157 0.0 1.0 0.00 0.03 0.00 89 1007.1
20260904070258 81 157 0.0 2.0 0.00 0.03 0.00 89 1007.1
20260904070156 81 157 0.0 2.0 0.00 0.03 0.00 89 1007.1
20260904070041 81 157 0.0 2.0 0.00 0.03 0.00 89 1007.1
20260904065940 81 157 0.0 2.0 0.00 0.03 0.00 89 1007.0
20260904065836 82 157 0.0 2.0 0.00 0.03 0.00 89 1007.1
20260904065732 81 157 0.0 2.0 0.00 0.03 0.00 89 1007.1
20260904065629 81 158 0.0 2.0 0.00 0.03 0.00 89 1007.1
20260904065526 81 158 0.0 2.0 0.00 0.03 0.00 89 1007.1
20260904065426 82 158 1.0 2.0 0.00 0.03 0.00 89 1007.1
20260904065314 82 157 1.0 2.0 0.00 0.03 0.00 89 1007.2
20260904065209 82 158 1.0 2.0 0.00 0.03 0.00 89 1007.2
20260904065108 82 158 0.0 2.0 0.00 0.03 0.00 89 1007.1
20260904065005 82 158 0.0 2.0 0.00 0.03 0.00 89 1007.1
20260904064902 82 158 0.0 2.0 0.00 0.03 0.00 89 1007.1
20260904064803 82 158 1.0 2.0 0.00 0.03 0.00 88 1007.1
20260904064702 82 158 1.0 2.0 0.00 0.03 0.00 88 1007.1
20260904064602 82 159 0.0 2.0 0.00 0.03 0.00 89 1007.2
20260904064504 82 159 1.0 3.0 0.00 0.03 0.00 88 1007.1
20260904064402 82 159 1.0 3.0 0.00 0.03 0.00 88 1007.1
20260904064302 82 159 0.0 4.0 0.00 0.03 0.00 89 1007.1
20260904064202 82 137 0.0 4.0 0.00 0.03 0.00 89 1007.1
20260904064104 82 137 0.0 4.0 0.00 0.03 0.00 89 1007.2
20260904064002 82 137 0.0 4.0 0.00 0.03 0.00 88 1007.2
20260904063901 82 137 0.0 4.0 0.00 0.03 0.00 88 1007.2
20260904063803 82 137 0.0 4.0 0.00 0.03 0.00 88 1007.2
20260904063703 82 137 1.0 4.0 0.00 0.03 0.00 88 1007.1
20260904063603 82 135 2.0 4.0 0.00 0.03 0.00 88 1007.2
20260904063503 82 137 2.0 4.0 0.00 0.03 0.00 88 1007.2
20260904063404 82 137 1.0 4.0 0.00 0.03 0.00 88 1007.2
20260904063304 82 138 1.0 4.0 0.00 0.03 0.00 88 1007.2
20260904063202 82 138 2.0 4.0 0.00 0.03 0.00 88 1007.2
20260904063104 82 116 2.0 4.0 0.00 0.03 0.00 88 1007.1
20260904063003 82 128 1.0 3.0 0.00 0.03 0.00 88 1007.2
20260904062903 82 133 1.0 3.0 0.00 0.03 0.00 88 1007.2
20260904062803 82 133 1.0 3.0 0.00 0.03 0.00 88 1007.2
20260904062702 82 134 1.0 3.0 0.00 0.03 0.00 88 1007.1
20260904062603 82 134 2.0 3.0 0.00 0.03 0.00 88 1007.1
20260904062504 82 134 2.0 3.0 0.00 0.03 0.00 88 1007.2
20260904062404 82 134 2.0 3.0 0.00 0.03 0.00 88 1007.2
20260904062305 82 130 2.0 3.0 0.00 0.03 0.00 88 1007.1
20260904062203 82 130 2.0 3.0 0.00 0.03 0.00 88 1007.1
20260904062103 82 118 1.0 3.0 0.00 0.03 0.00 88 1007.1
20260904062003 82 121 1.0 4.0 0.00 0.03 0.00 88 1007.1
20260904061901 82 121 1.0 4.0 0.00 0.03 0.00 88 1007.1
20260904061802 82 121 1.0 4.0 0.00 0.03 0.00 88 1007.1
20260904061704 82 124 1.0 4.0 0.00 0.03 0.00 88 1007.1
20260904061602 82 124 1.0 4.0 0.00 0.03 0.00 88 1007.1
20260904061504 82 124 1.0 4.0 0.00 0.03 0.00 88 1007.1
20260904061403 82 124 2.0 4.0 0.00 0.03 0.00 88 1007.2
20260904061301 82 124 2.0 4.0 0.00 0.03 0.00 88 1007.1
20260904061202 82 109 2.0 4.0 0.00 0.03 0.00 88 1007.1
20260904061102 82 109 2.0 4.0 0.00 0.03 0.00 88 1007.1
20260904061002 82 134 2.0 4.0 0.00 0.03 0.00 88 1007.2
20260904060903 82 131 2.0 4.0 0.00 0.03 0.00 88 1007.2
20260904060803 82 135 2.0 4.0 0.00 0.03 0.00 88 1007.2
20260904060702 82 124 2.0 4.0 0.00 0.03 0.00 88 1007.2
20260904060602 82 123 2.0 4.0 0.00 0.03 0.00 88 1007.2
20260904060503 82 125 2.0 4.0 0.00 0.03 0.00 88 1007.2
20260904060403 82 128 2.0 4.0 0.00 0.03 0.00 88 1007.2
20260904060302 82 138 1.0 4.0 0.00 0.03 0.00 88 1007.2
20260904060205 82 137 1.0 4.0 0.00 0.03 0.00 88 1007.2
20260904060104 82 135 2.0 4.0 0.00 0.03 0.00 88 1007.1
20260904060004 82 137 2.0 4.0 0.00 0.03 0.00 88 1007.1
20260904055904 82 141 2.0 4.0 0.00 0.03 0.00 88 1007.1
20260904055803 82 125 2.0 5.0 0.00 0.03 0.00 88 1007.1
20260904055702 82 128 2.0 5.0 0.00 0.03 0.00 88 1007.1
20260904055604 82 127 2.0 5.0 0.00 0.03 0.00 88 1007.0
20260904055503 82 130 2.0 5.0 0.00 0.04 0.00 88 1007.0
20260904055403 82 125 2.0 5.0 0.00 0.04 0.00 88 1007.0
20260904055306 82 127 2.0 5.0 0.00 0.04 0.00 88 1007.0
20260904055202 82 128 2.0 5.0 0.00 0.04 0.00 88 1007.0
20260904055103 82 130 2.0 5.0 0.00 0.04 0.00 88 1007.0
20260904055004 82 130 3.0 5.0 0.00 0.04 0.00 88 1007.0
20260904054903 82 131 3.0 5.0 0.00 0.04 0.00 88 1007.0
20260904054802 82 116 2.0 4.0 0.00 0.04 0.00 88 1006.9
20260904054702 82 111 3.0 4.0 0.00 0.04 0.00 88 1007.0
20260904054603 82 113 3.0 4.0 0.00 0.04 0.00 88 1006.9
20260904054503 82 110 3.0 4.0 0.00 0.04 0.00 88 1006.9
20260904054402 82 110 3.0 4.0 0.00 0.04 0.00 88 1007.0
20260904054304 82 110 1.0 4.0 0.00 0.04 0.00 88 1007.0
20260904054203 82 110 3.0 4.0 0.00 0.04 0.00 88 1007.0
20260904054104 82 110 3.0 4.0 0.00 0.04 0.00 88 1007.0
20260904054004 82 123 3.0 4.0 0.00 0.04 0.00 88 1006.9
20260904053904 82 131 2.0 4.0 0.00 0.04 0.00 88 1006.9
20260904053804 82 111 2.0 4.0 0.00 0.04 0.00 88 1006.9
20260904053702 82 117 2.0 4.0 0.00 0.04 0.00 88 1007.0
20260904053603 82 142 1.0 4.0 0.00 0.04 0.00 88 1007.0
20260904053504 82 134 2.0 4.0 0.00 0.04 0.00 88 1007.0
20260904053404 82 159 2.0 4.0 0.00 0.04 0.00 88 1007.0
20260904053303 82 159 2.0 4.0 0.00 0.04 0.00 88 1006.9
20260904053202 82 166 1.0 4.0 0.00 0.04 0.00 88 1007.0
20260904053103 82 152 2.0 4.0 0.00 0.04 0.00 88 1007.0
20260904053004 82 152 2.0 4.0 0.00 0.04 0.00 88 1007.0
20260904052903 82 152 1.0 4.0 0.00 0.04 0.00 88 1007.0
20260904052805 82 152 1.0 5.0 0.00 0.04 0.00 88 1007.0
20260904052702 82 152 2.0 5.0 0.00 0.04 0.00 88 1007.0
20260904052604 82 158 2.0 5.0 0.00 0.04 0.00 88 1007.0
20260904052504 82 161 2.0 5.0 0.00 0.04 0.00 88 1006.9
20260904052403 82 164 2.0 5.0 0.00 0.04 0.00 88 1006.9
20260904052306 82 141 2.0 5.0 0.00 0.04 0.00 88 1007.0
20260904052203 82 124 1.0 5.0 0.00 0.04 0.00 88 1006.9
20260904052103 82 117 1.0 5.0 0.00 0.04 0.00 88 1007.0
20260904052004 82 116 2.0 5.0 0.00 0.04 0.00 88 1007.0
20260904051903 82 113 2.0 5.0 0.00 0.04 0.00 88 1007.0
20260904051804 82 145 2.0 5.0 0.00 0.04 0.00 88 1006.9
20260904051703 82 142 2.0 5.0 0.00 0.04 0.00 88 1006.9
20260904051604 82 145 3.0 5.0 0.00 0.04 0.00 88 1006.8
20260904051502 82 125 3.0 5.0 0.00 0.04 0.00 88 1006.9
20260904051405 82 128 3.0 5.0 0.00 0.04 0.00 88 1006.8
20260904051304 82 118 3.0 5.0 0.00 0.04 0.00 88 1006.8
20260904051203 82 140 2.0 5.0 0.00 0.04 0.00 88 1006.9
20260904051104 82 134 3.0 5.0 0.00 0.04 0.00 88 1006.9
20260904051005 82 141 2.0 5.0 0.00 0.04 0.00 88 1006.9
20260904050904 82 133 2.0 5.0 0.00 0.04 0.00 88 1006.9
20260904050803 82 131 2.0 5.0 0.00 0.04 0.00 88 1006.8
20260904050703 82 110 2.0 5.0 0.00 0.04 0.00 88 1006.8
20260904050604 82 137 2.0 4.0 0.00 0.04 0.00 88 1006.8
20260904050503 82 141 2.0 4.0 0.00 0.04 0.00 88 1006.8
20260904050403 82 142 2.0 4.0 0.00 0.04 0.00 88 1006.8
20260904050302 82 117 2.0 4.0 0.00 0.04 0.00 88 1006.8
20260904050204 82 109 2.0 4.0 0.00 0.04 0.00 88 1006.9
20260904050103 82 135 2.0 4.0 0.00 0.04 0.00 88 1006.9
20260904050005 82 140 1.0 4.0 0.00 0.04 0.00 88 1006.9
20260904045902 82 138 1.0 4.0 0.00 0.04 0.04 88 1006.9
20260904045802 82 138 2.0 4.0 0.00 0.04 0.04 88 1006.9
20260904045704 82 142 3.0 4.0 0.00 0.04 0.04 88 1006.9
20260904045603 82 142 2.0 4.0 0.00 0.04 0.04 88 1006.9
20260904045504 82 138 2.0 4.0 0.00 0.04 0.04 88 1006.9
20260904045403 82 140 2.0 4.0 0.00 0.04 0.04 88 1007.0
20260904045307 82 144 2.0 4.0 0.00 0.04 0.04 88 1006.9
20260904045203 82 145 2.0 4.0 0.00 0.04 0.04 88 1007.0
20260904045102 82 130 2.0 4.0 0.00 0.04 0.04 88 1006.9
20260904045006 82 135 2.0 4.0 0.00 0.04 0.04 88 1007.0
20260904044904 82 137 1.0 4.0 0.00 0.04 0.04 88 1007.0
20260904044802 82 124 2.0 4.0 0.00 0.04 0.04 88 1007.0
20260904044704 82 123 2.0 4.0 0.00 0.04 0.04 88 1007.0
20260904044604 82 151 2.0 4.0 0.00 0.04 0.04 88 1006.9
20260904044505 82 158 2.0 4.0 0.00 0.04 0.04 88 1006.9
20260904044403 82 161 2.0 4.0 0.00 0.04 0.04 88 1006.9
20260904044304 82 130 2.0 4.0 0.00 0.04 0.04 88 1007.0
20260904044204 82 123 2.0 6.0 0.00 0.04 0.04 88 1007.0
20260904044103 82 159 2.0 6.0 0.00 0.04 0.04 88 1006.9
20260904044005 82 175 1.0 6.0 0.00 0.04 0.04 88 1007.1
20260904043902 82 128 2.0 6.0 0.00 0.04 0.04 88 1007.0
20260904043801 82 128 2.0 6.0 0.00 0.04 0.04 88 1007.0
20260904043704 82 130 2.0 6.0 0.00 0.04 0.04 88 1007.0
20260904043603 82 130 2.0 6.0 0.00 0.04 0.04 88 1007.0
20260904043505 82 144 2.0 6.0 0.00 0.04 0.04 88 1007.0
20260904043404 82 148 3.0 6.0 0.00 0.04 0.04 88 1006.9
20260904043305 82 158 3.0 6.0 0.00 0.04 0.04 88 1006.9
20260904043203 82 135 2.0 5.0 0.00 0.04 0.04 88 1007.0
20260904043104 82 145 2.0 5.0 0.00 0.04 0.04 88 1006.9
20260904043002 82 148 2.0 5.0 0.00 0.04 0.04 88 1006.8
20260904042902 82 154 3.0 5.0 0.00 0.04 0.04 88 1006.9
20260904042802 82 110 3.0 5.0 0.00 0.04 0.04 88 1006.9
20260904042704 82 102 2.0 5.0 0.00 0.04 0.04 88 1006.9
20260904042604 82 144 2.0 5.0 0.00 0.04 0.04 88 1006.9
20260904042502 82 147 2.0 5.0 0.00 0.04 0.04 88 1006.9
20260904042404 82 140 2.0 5.0 0.00 0.04 0.04 88 1006.9
20260904042306 82 140 2.0 5.0 0.00 0.04 0.04 88 1006.9
20260904042205 82 133 2.0 4.0 0.00 0.04 0.04 88 1006.8
20260904042104 82 111 1.0 4.0 0.00 0.04 0.04 88 1006.9
20260904042002 82 111 1.0 4.0 0.00 0.04 0.04 88 1006.9
20260904041903 82 109 2.0 4.0 0.00 0.04 0.04 88 1006.8
20260904041803 82 107 2.0 4.0 0.00 0.04 0.04 88 1006.9
20260904041704 82 107 2.0 4.0 0.00 0.04 0.04 88 1006.9
20260904041603 82 131 2.0 4.0 0.00 0.04 0.04 88 1006.9
20260904041503 82 117 3.0 4.0 0.00 0.04 0.04 88 1006.8
20260904041404 82 125 2.0 5.0 0.00 0.04 0.04 88 1006.8
20260904041303 82 113 2.0 5.0 0.00 0.04 0.04 88 1006.9
20260904041203 82 113 2.0 5.0 0.00 0.04 0.04 88 1006.8
20260904041104 82 133 1.0 5.0 0.00 0.04 0.04 88 1006.8
20260904041003 82 133 1.0 5.0 0.00 0.04 0.04 88 1006.9
20260904040903 82 135 1.0 5.0 0.00 0.04 0.04 88 1006.9
20260904040803 82 135 1.0 5.0 0.00 0.04 0.04 88 1006.8
20260904040703 82 135 1.0 6.0 0.00 0.04 0.04 88 1006.8
20260904040603 82 134 2.0 6.0 0.00 0.04 0.04 88 1006.8
20260904040502 82 145 3.0 6.0 0.00 0.04 0.04 88 1006.9
20260904040403 82 140 3.0 6.0 0.00 0.04 0.04 88 1006.8
20260904040303 82 134 2.0 6.0 0.00 0.04 0.04 88 1006.8
20260904040204 82 128 2.0 6.0 0.00 0.04 0.04 88 1006.8
20260904040004 82 147 3.0 6.0 0.00 0.04 0.04 88 1006.9
20260904035903 82 124 4.0 6.0 0.00 0.04 0.04 88 1006.8
20260904035802 82 154 4.0 6.0 0.00 0.04 0.04 88 1006.8
20260904035703 82 145 3.0 6.0 0.00 0.04 0.04 88 1006.9
20260904035604 82 114 3.0 6.0 0.00 0.04 0.04 88 1006.9
20260904035504 82 130 3.0 6.0 0.00 0.04 0.04 88 1006.9
20260904035403 82 121 2.0 6.0 0.00 0.04 0.04 88 1006.8
20260904035305 82 140 2.0 6.0 0.00 0.04 0.04 88 1006.8
20260904035204 82 123 3.0 6.0 0.00 0.04 0.04 88 1006.9
20260904035102 82 113 4.0 6.0 0.00 0.04 0.04 88 1006.9
20260904035005 82 125 3.0 6.0 0.00 0.04 0.04 88 1006.9
20260904034903 82 118 3.0 6.0 0.00 0.04 0.04 88 1006.9
20260904034803 82 117 3.0 6.0 0.00 0.04 0.04 88 1006.9
20260904034704 82 123 3.0 6.0 0.00 0.04 0.04 88 1006.9
20260904034604 82 106 3.0 6.0 0.00 0.04 0.04 88 1006.9
20260904034504 82 110 3.0 6.0 0.00 0.04 0.04 88 1006.9
20260904034403 82 125 3.0 6.0 0.00 0.04 0.04 88 1007.0
20260904034304 82 113 3.0 6.0 0.00 0.04 0.04 88 1007.0
20260904034202 82 121 4.0 6.0 0.00 0.04 0.04 88 1007.0
20260904034103 82 133 4.0 6.0 0.00 0.04 0.04 88 1007.0
20260904034004 82 116 3.0 5.0 0.00 0.04 0.04 88 1007.0
20260904033902 82 123 3.0 5.0 0.00 0.04 0.04 88 1007.0
20260904033803 82 118 3.0 5.0 0.00 0.04 0.04 88 1006.9
20260904033703 82 140 3.0 5.0 0.00 0.04 0.04 88 1007.0
20260904033603 82 134 3.0 6.0 0.00 0.04 0.04 88 1007.0
20260904033503 82 121 4.0 6.0 0.00 0.04 0.04 88 1007.0
20260904033402 82 148 4.0 6.0 0.00 0.04 0.04 88 1007.0
20260904033303 82 124 4.0 6.0 0.00 0.04 0.04 88 1007.0
20260904033203 82 120 4.0 6.0 0.00 0.04 0.04 88 1007.0
20260904033103 82 124 2.0 6.0 0.00 0.04 0.04 88 1006.9
20260904033002 82 125 3.0 6.0 0.00 0.04 0.04 88 1007.0
20260904032902 82 110 4.0 6.0 0.00 0.04 0.04 88 1006.9
20260904032804 82 109 4.0 6.0 0.00 0.04 0.04 88 1006.9
20260904032703 82 128 3.0 6.0 0.00 0.04 0.04 88 1007.0
20260904032603 82 114 3.0 4.0 0.00 0.04 0.04 88 1006.9
20260904032503 82 133 2.0 4.0 0.00 0.04 0.04 88 1007.0
20260904032403 82 114 2.0 4.0 0.00 0.04 0.04 88 1006.9
20260904032305 82 107 1.0 4.0 0.00 0.04 0.04 88 1006.9
20260904032202 82 125 1.0 4.0 0.00 0.04 0.04 88 1006.9
20260904032103 82 125 1.0 4.0 0.00 0.04 0.04 88 1006.9
20260904032002 82 125 1.0 4.0 0.00 0.04 0.04 88 1007.0
20260904031902 82 124 2.0 4.0 0.00 0.04 0.04 88 1007.0
20260904031803 82 114 3.0 4.0 0.00 0.04 0.04 88 1007.0
20260904031702 82 116 2.0 4.0 0.00 0.04 0.04 88 1007.0
20260904031604 82 117 3.0 4.0 0.00 0.04 0.04 88 1007.1
20260904031503 82 117 3.0 5.0 0.00 0.04 0.04 88 1007.2
20260904031404 82 116 2.0 6.0 0.00 0.04 0.04 88 1007.1
20260904031302 82 117 2.0 6.0 0.00 0.04 0.04 88 1007.0
20260904031202 82 117 3.0 6.0 0.00 0.04 0.04 88 1007.1
20260904031104 82 118 3.0 6.0 0.00 0.04 0.04 88 1007.1
20260904031002 82 120 2.0 6.0 0.00 0.04 0.04 88 1007.0
20260904030903 82 121 2.0 6.0 0.00 0.04 0.04 88 1007.0
20260904030802 82 114 3.0 6.0 0.00 0.04 0.04 88 1007.0
20260904030704 82 130 4.0 6.0 0.00 0.04 0.04 88 1007.0
20260904030602 82 104 3.0 6.0 0.00 0.04 0.04 88 1007.0
20260904030504 82 102 3.0 6.0 0.00 0.04 0.04 88 1007.0
20260904030404 82 118 3.0 6.0 0.00 0.04 0.04 88 1007.0
20260904030303 82 114 4.0 6.0 0.00 0.04 0.04 88 1007.0
20260904030203 82 125 3.0 6.0 0.00 0.04 0.04 88 1007.0
20260904030103 82 128 4.0 6.0 0.00 0.04 0.04 88 1007.0
20260904030003 82 114 5.0 6.0 0.00 0.04 0.04 88 1006.9
20260904025902 82 104 4.0 6.0 0.00 0.04 0.04 88 1007.0
20260904025802 82 117 3.0 6.0 0.00 0.04 0.04 88 1007.1
20260904025704 82 107 3.0 6.0 0.00 0.04 0.04 88 1007.0
20260904025602 82 111 3.0 6.0 0.00 0.04 0.04 88 1007.0
20260904025505 82 114 4.0 6.0 0.00 0.04 0.04 88 1007.0
20260904025404 82 110 4.0 6.0 0.00 0.04 0.04 88 1007.0
20260904025306 82 124 4.0 5.0 0.00 0.04 0.04 88 1007.0
20260904025204 82 102 3.0 5.0 0.00 0.04 0.04 88 1007.0
20260904025103 82 118 3.0 6.0 0.00 0.04 0.04 88 1007.0
20260904025002 82 110 3.0 6.0 0.00 0.04 0.04 88 1007.0
20260904024902 82 111 3.0 6.0 0.00 0.04 0.04 88 1006.9
20260904024802 82 102 4.0 6.0 0.00 0.04 0.04 88 1006.9
20260904024703 82 106 3.0 6.0 0.00 0.04 0.04 88 1006.9
20260904024604 82 117 2.0 6.0 0.00 0.04 0.04 88 1006.9
20260904024504 82 130 2.0 6.0 0.00 0.04 0.04 88 1006.9
20260904024403 82 123 3.0 6.0 0.00 0.04 0.04 88 1006.9
20260904024302 82 116 3.0 6.0 0.00 0.04 0.04 88 1006.9
20260904024204 82 104 4.0 6.0 0.00 0.04 0.04 88 1006.9
20260904024102 82 140 4.0 5.0 0.00 0.04 0.04 88 1006.9
20260904024003 82 116 3.0 4.0 0.00 0.04 0.04 88 1006.9
20260904023903 82 118 2.0 4.0 0.00 0.04 0.04 88 1006.9
20260904023803 82 118 1.0 4.0 0.00 0.04 0.04 88 1006.9
20260904023703 82 113 1.0 4.0 0.00 0.04 0.04 88 1006.9
20260904023602 82 113 3.0 4.0 0.00 0.04 0.04 87 1006.8
20260904023503 82 113 3.0 4.0 0.00 0.04 0.04 87 1006.8
20260904023404 82 113 2.0 4.0 0.00 0.04 0.04 87 1006.8
20260904023303 82 111 1.0 4.0 0.00 0.04 0.04 87 1006.9
20260904023202 82 110 2.0 4.0 0.00 0.04 0.04 87 1006.8
20260904023102 82 110 2.0 4.0 0.00 0.04 0.04 87 1006.8
20260904023005 82 106 0.0 4.0 0.00 0.04 0.04 87 1006.7
20260904022902 82 134 0.0 4.0 0.00 0.04 0.04 87 1006.8
20260904022804 82 134 0.0 4.0 0.00 0.04 0.04 87 1006.6
20260904022704 82 131 0.0 4.0 0.00 0.04 0.04 87 1006.6
20260904022602 82 133 1.0 4.0 0.00 0.04 0.04 87 1006.6
20260904022503 82 133 2.0 4.0 0.00 0.04 0.04 87 1006.6
20260904022402 82 128 2.0 4.0 0.00 0.04 0.04 87 1006.6
20260904022305 82 137 1.0 4.0 0.00 0.04 0.04 87 1006.5
20260904022204 82 142 1.0 4.0 0.00 0.04 0.04 87 1006.5
20260904022103 82 134 1.0 4.0 0.00 0.04 0.04 87 1006.5
20260904022002 82 135 1.0 4.0 0.00 0.04 0.04 87 1006.4
20260904021903 82 125 2.0 4.0 0.00 0.04 0.04 87 1006.5
20260904021802 82 123 2.0 4.0 0.00 0.04 0.04 87 1006.4
20260904021702 82 116 3.0 4.0 0.00 0.04 0.04 87 1006.3
20260904021604 82 110 3.0 4.0 0.00 0.04 0.04 87 1006.4
20260904021504 82 110 3.0 4.0 0.00 0.04 0.04 87 1006.4
20260904021404 82 113 3.0 4.0 0.00 0.04 0.04 87 1006.3
20260904021303 82 114 2.0 4.0 0.00 0.04 0.04 87 1006.4
20260904021203 82 121 2.0 4.0 0.00 0.04 0.04 87 1006.4
20260904021103 82 124 2.0 3.0 0.00 0.04 0.04 87 1006.3
20260904021002 82 128 2.0 3.0 0.00 0.04 0.04 87 1006.4
20260904020904 82 128 2.0 3.0 0.00 0.04 0.04 87 1006.4
20260904020803 82 131 2.0 3.0 0.00 0.04 0.04 87 1006.4
20260904020703 82 133 2.0 3.0 0.00 0.04 0.04 87 1006.4
20260904020604 82 125 2.0 4.0 0.00 0.04 0.04 87 1006.4
20260904020502 82 123 2.0 4.0 0.00 0.04 0.04 87 1006.4
20260904020403 82 123 2.0 4.0 0.00 0.04 0.04 87 1006.3
20260904020304 82 120 1.0 4.0 0.00 0.04 0.04 87 1006.3
20260904020203 82 120 1.0 4.0 0.00 0.04 0.04 87 1006.3
20260904020104 82 111 1.0 4.0 0.00 0.04 0.04 87 1006.4
20260904020002 82 111 2.0 5.0 0.00 0.04 0.04 87 1006.4
20260904015902 82 110 2.0 5.0 0.00 0.04 0.04 87 1006.4
20260904015804 82 109 2.0 5.0 0.00 0.04 0.04 87 1006.4
20260904015702 81 107 3.0 5.0 0.00 0.04 0.04 87 1006.4
20260904015603 81 107 2.0 5.0 0.00 0.04 0.04 87 1006.4
20260904015502 81 104 2.0 5.0 0.00 0.04 0.04 87 1006.3
20260904015404 81 103 3.0 5.0 0.00 0.04 0.04 86 1006.4
20260904015306 81 104 3.0 5.0 0.00 0.04 0.04 86 1006.4
20260904015202 81 104 3.0 5.0 0.00 0.04 0.04 86 1006.3
20260904015103 81 107 3.0 5.0 0.00 0.04 0.04 86 1006.3
20260904015004 81 110 3.0 5.0 0.00 0.04 0.04 86 1006.3
20260904014903 81 90 3.0 5.0 0.00 0.04 0.04 86 1006.3
20260904014803 81 114 3.0 5.0 0.00 0.04 0.04 86 1006.3
20260904014703 81 117 3.0 5.0 0.00 0.04 0.04 86 1006.2
20260904014604 81 118 3.0 5.0 0.00 0.04 0.04 86 1006.3
20260904014504 81 106 2.0 5.0 0.00 0.04 0.04 86 1006.2
20260904014403 81 103 2.0 5.0 0.00 0.04 0.04 86 1006.1
20260904014303 81 100 3.0 5.0 0.00 0.04 0.04 86 1006.2
20260904014203 81 100 3.0 5.0 0.00 0.04 0.04 86 1006.1
20260904014102 81 99 3.0 5.0 0.00 0.04 0.04 86 1006.1
20260904014004 81 99 3.0 4.0 0.00 0.04 0.04 86 1006.1
20260904013903 81 100 3.0 4.0 0.00 0.04 0.04 86 1006.1
20260904013803 81 107 3.0 4.0 0.00 0.04 0.04 86 1006.1
20260904013703 81 110 3.0 4.0 0.00 0.04 0.04 86 1006.1
20260904013602 81 100 2.0 4.0 0.00 0.04 0.04 86 1006.2
20260904013502 81 100 2.0 4.0 0.00 0.04 0.04 86 1006.1
20260904013403 81 100 2.0 4.0 0.00 0.04 0.04 86 1006.1
20260904013301 81 103 2.0 4.0 0.00 0.04 0.04 86 1006.1
20260904013202 81 103 2.0 4.0 0.00 0.04 0.04 86 1006.2
20260904013102 81 102 2.0 4.0 0.00 0.04 0.04 86 1006.2
20260904013005 81 96 3.0 4.0 0.00 0.04 0.04 86 1006.1
20260904012904 81 97 2.0 4.0 0.00 0.04 0.04 86 1006.1
20260904012803 81 94 2.0 3.0 0.00 0.04 0.04 86 1006.2
20260904012704 81 92 2.0 3.0 0.00 0.04 0.04 86 1006.1
20260904012602 81 90 2.0 3.0 0.00 0.04 0.04 86 1006.1
20260904012504 81 89 2.0 3.0 0.00 0.04 0.04 86 1006.1
20260904012402 81 89 2.0 3.0 0.00 0.04 0.04 86 1006.1
20260904012306 81 89 2.0 3.0 0.00 0.04 0.04 85 1006.1
20260904012202 81 89 2.0 3.0 0.00 0.04 0.04 85 1006.1
20260904012102 81 89 2.0 4.0 0.00 0.04 0.04 85 1006.0
20260904012004 81 89 2.0 4.0 0.00 0.04 0.04 85 1006.1
20260904011903 81 90 2.0 4.0 0.00 0.04 0.04 85 1006.1
20260904011803 81 92 2.0 4.0 0.00 0.04 0.04 85 1006.1
20260904011704 81 92 2.0 4.0 0.00 0.04 0.04 85 1006.1
20260904011603 81 92 2.0 5.0 0.00 0.04 0.04 85 1006.1
20260904011502 81 93 2.0 5.0 0.00 0.04 0.04 85 1006.1
20260904011403 81 93 2.0 5.0 0.00 0.04 0.04 85 1006.1
20260904011303 81 93 3.0 5.0 0.00 0.04 0.04 85 1006.2
20260904011202 81 94 3.0 5.0 0.00 0.04 0.04 85 1006.0
20260904011103 81 96 3.0 5.0 0.00 0.04 0.04 85 1006.0
20260904011004 81 97 2.0 5.0 0.00 0.04 0.04 85 1006.1
20260904010902 81 99 2.0 5.0 0.00 0.04 0.04 85 1006.1
20260904010804 81 100 3.0 5.0 0.00 0.04 0.04 85 1006.0
20260904010703 81 100 3.0 5.0 0.00 0.04 0.04 85 1006.0
20260904010604 81 100 2.0 4.0 0.00 0.04 0.04 85 1006.0
20260904010501 81 102 2.0 4.0 0.00 0.04 0.04 85 1006.0
20260904010402 81 104 3.0 4.0 0.00 0.04 0.04 85 1006.0
20260904010303 81 102 3.0 4.0 0.00 0.04 0.04 85 1006.0
20260904010203 81 100 3.0 4.0 0.00 0.04 0.04 85 1006.0
20260904010104 81 106 4.0 4.0 0.00 0.04 0.04 85 1006.0
20260904010002 81 106 2.0 4.0 0.00 0.04 0.04 85 1006.0
20260904005904 81 106 3.0 4.0 0.00 0.04 0.04 85 1006.0
20260904005803 81 104 2.0 4.0 0.00 0.04 0.04 85 1006.0
20260904005702 81 114 2.0 4.0 0.00 0.04 0.04 85 1006.0
20260904005603 81 106 2.0 4.0 0.00 0.04 0.04 85 1006.0
20260904005504 81 104 2.0 4.0 0.00 0.04 0.04 85 1006.0
20260904005403 81 102 2.0 4.0 0.00 0.04 0.04 85 1006.0
20260904005306 81 96 2.0 6.0 0.00 0.04 0.04 85 1006.0
20260904005202 81 96 2.0 6.0 0.00 0.04 0.04 85 1006.0
20260904005103 81 97 3.0 6.0 0.00 0.04 0.04 85 1006.0
20260904005004 81 99 3.0 6.0 0.00 0.04 0.04 85 1006.0
20260904004903 81 96 2.0 6.0 0.00 0.04 0.04 85 1006.0
20260904004804 81 96 3.0 6.0 0.00 0.04 0.04 85 1006.0
20260904004703 81 96 3.0 6.0 0.00 0.04 0.04 85 1006.0
20260904004603 81 85 2.0 6.0 0.00 0.04 0.04 85 1006.0
20260904004502 81 85 4.0 6.0 0.00 0.04 0.04 85 1006.0
20260904004403 81 82 4.0 6.0 0.00 0.04 0.04 85 1006.0
20260904004302 81 87 4.0 6.0 0.00 0.04 0.04 85 1006.0
20260904004203 81 89 4.0 6.0 0.00 0.04 0.04 85 1006.0
20260904004102 81 85 4.0 6.0 0.00 0.04 0.04 85 1006.0
20260904004002 81 90 3.0 5.0 0.00 0.04 0.04 85 1006.1
20260904003904 81 92 3.0 5.0 0.00 0.04 0.04 85 1006.1
20260904003802 81 93 4.0 6.0 0.00 0.04 0.04 86 1006.1
20260904003702 81 96 4.0 6.0 0.00 0.04 0.04 86 1006.1
20260904003604 81 103 4.0 6.0 0.00 0.04 0.04 86 1006.1
20260904003504 81 90 4.0 6.0 0.00 0.04 0.04 86 1006.1
20260904003404 81 97 4.0 6.0 0.00 0.04 0.04 86 1006.1
20260904003303 81 93 4.0 6.0 0.00 0.04 0.04 86 1006.0
20260904003203 81 102 3.0 6.0 0.00 0.04 0.04 86 1006.0
20260904003102 81 94 4.0 6.0 0.00 0.04 0.04 86 1006.0
20260904003002 81 92 4.0 6.0 0.00 0.04 0.04 86 1006.0
20260904002903 81 69 4.0 6.0 0.00 0.04 0.04 86 1006.0
20260904002802 81 89 3.0 6.0 0.00 0.04 0.04 86 1006.0
20260904002703 81 49 2.0 6.0 0.00 0.04 0.04 86 1006.0
20260904002602 81 86 4.0 6.0 0.00 0.04 0.04 87 1006.0
20260904002504 81 82 4.0 6.0 0.00 0.04 0.04 87 1006.0
20260904002404 81 92 2.0 6.0 0.00 0.04 0.04 87 1006.0
20260904002306 81 92 3.0 6.0 0.00 0.04 0.04 87 1006.0
20260904002202 81 93 3.0 6.0 0.00 0.04 0.04 87 1006.0
20260904002104 81 90 4.0 6.0 0.00 0.04 0.04 87 1006.0
20260904002004 81 73 4.0 6.0 0.00 0.04 0.04 87 1006.0
20260904001904 81 79 4.0 6.0 0.00 0.04 0.04 87 1006.0
20260904001804 81 97 4.0 6.0 0.00 0.04 0.04 87 1005.9
20260904001704 81 79 4.0 6.0 0.00 0.04 0.04 87 1006.0
20260904001603 81 90 4.0 6.0 0.00 0.04 0.04 88 1006.0
20260904001505 81 99 3.0 6.0 0.00 0.04 0.04 88 1006.0
20260904001402 81 86 3.0 6.0 0.00 0.04 0.04 88 1006.0
20260904001302 81 83 4.0 6.0 0.00 0.04 0.04 88 1006.0
20260904001203 81 83 3.0 5.0 0.00 0.04 0.04 88 1006.0
20260904001102 81 73 2.0 4.0 0.00 0.04 0.04 88 1006.1
20260904001004 81 86 2.0 4.0 0.00 0.04 0.04 88 1006.0
20260904000904 81 83 2.0 4.0 0.00 0.04 0.04 88 1006.1
20260904000804 81 83 2.0 4.0 0.00 0.04 0.04 88 1006.1
20260904000703 81 83 2.0 4.0 0.00 0.04 0.04 88 1006.1
20260904000603 81 69 2.0 4.0 0.00 0.04 0.04 88 1006.0
20260904000504 81 69 2.0 4.0 0.00 0.04 0.04 88 1006.1
20260904000404 81 96 2.0 4.0 0.00 0.04 0.04 88 1006.2
20260904000303 81 99 2.0 4.0 0.00 0.04 0.04 88 1006.1
20260904000203 80 75 1.0 4.0 0.00 0.04 0.04 88 1006.2
20260904000103 81 75 2.0 5.0 0.00 0.04 0.04 88 1006.1
20260904000004 81 68 2.0 6.0 0.00 0.04 0.04 88 1006.1
20260903235903 81 82 2.0 6.0 0.00 0.04 0.04 88 1006.1
20260903235803 81 93 2.0 6.0 0.00 0.04 0.04 88 1006.2
20260903235704 81 94 2.0 6.0 0.00 0.04 0.04 88 1006.1
20260903235602 80 92 2.0 6.0 0.00 0.04 0.04 88 1006.1
20260903235505 80 54 2.0 6.0 0.00 0.04 0.04 88 1006.1
20260903235403 80 69 3.0 6.0 0.00 0.04 0.04 88 1006.2
20260903235305 80 55 2.0 6.0 0.00 0.04 0.04 88 1006.2
20260903235202 80 39 3.0 6.0 0.00 0.04 0.04 88 1006.3
20260903235104 80 66 3.0 6.0 0.00 0.04 0.04 89 1006.2
20260903235004 80 62 1.0 4.0 0.00 0.04 0.04 89 1006.2
20260903234903 80 51 1.0 4.0 0.00 0.04 0.04 89 1006.3
20260903234803 80 51 1.0 4.0 0.00 0.04 0.04 88 1006.2
20260903234702 80 62 2.0 4.0 0.00 0.04 0.04 89 1006.2
20260903234603 80 62 2.0 4.0 0.00 0.04 0.04 89 1006.2
20260903234502 80 55 1.0 3.0 0.00 0.04 0.04 89 1006.2
20260903234404 80 59 1.0 3.0 0.00 0.04 0.04 89 1006.2
20260903234304 80 54 1.0 3.0 0.00 0.04 0.04 89 1006.2
20260903234202 80 58 1.0 5.0 0.00 0.04 0.04 89 1006.2
20260903234103 80 58 1.0 5.0 0.00 0.04 0.04 89 1006.2
20260903234004 80 58 2.0 5.0 0.00 0.04 0.04 89 1006.3
20260903233904 80 62 2.0 5.0 0.00 0.04 0.04 89 1006.2
20260903233803 80 66 1.0 5.0 0.00 0.04 0.04 89 1006.2
20260903233702 80 66 1.0 5.0 0.00 0.04 0.04 89 1006.3
20260903233604 80 68 1.0 5.0 0.00 0.04 0.04 89 1006.2
20260903233502 80 68 1.0 5.0 0.00 0.04 0.04 89 1006.2
20260903233403 80 68 3.0 5.0 0.00 0.04 0.04 89 1006.2
20260903233304 80 71 1.0 5.0 0.00 0.04 0.04 89 1006.2
20260903233203 80 63 0.0 5.0 0.00 0.04 0.04 89 1006.2
20260903233104 80 62 0.0 5.0 0.00 0.04 0.04 89 1006.2
20260903233004 80 62 1.0 5.0 0.00 0.04 0.04 89 1006.3
20260903232903 80 62 2.0 5.0 0.00 0.04 0.04 89 1006.3
20260903232804 80 62 1.0 5.0 0.00 0.04 0.04 89 1006.2
20260903232703 80 63 2.0 5.0 0.00 0.04 0.04 89 1006.3
20260903232603 80 103 3.0 6.0 0.00 0.04 0.04 89 1006.2
20260903232503 80 68 3.0 6.0 0.00 0.04 0.04 89 1006.3
20260903232403 80 41 2.0 6.0 0.00 0.04 0.04 89 1006.3
20260903232306 80 80 2.0 6.0 0.00 0.04 0.04 89 1006.3
20260903232202 80 78 2.0 6.0 0.00 0.04 0.04 89 1006.3
20260903232104 80 86 3.0 6.0 0.00 0.04 0.04 90 1006.3
20260903232002 80 92 4.0 6.0 0.00 0.04 0.04 90 1006.3
20260903231902 80 76 3.0 6.0 0.00 0.04 0.04 90 1006.4
20260903231803 80 85 3.0 6.0 0.00 0.04 0.04 89 1006.4
20260903231703 80 78 4.0 6.0 0.00 0.04 0.04 90 1006.4
20260903231604 80 97 2.0 6.0 0.00 0.04 0.04 90 1006.4
20260903231503 80 92 1.0 6.0 0.00 0.04 0.04 90 1006.4
20260903231403 80 103 2.0 6.0 0.00 0.04 0.04 90 1006.4
20260903231302 80 107 2.0 6.0 0.00 0.04 0.04 90 1006.4
20260903231203 80 110 3.0 6.0 0.00 0.04 0.04 90 1006.4
20260903231104 80 82 4.0 6.0 0.00 0.04 0.04 90 1006.4
20260903231003 80 93 4.0 6.0 0.00 0.04 0.04 90 1006.4
20260903230902 80 99 3.0 5.0 0.00 0.04 0.04 90 1006.4
20260903230803 80 85 3.0 5.0 0.00 0.04 0.04 90 1006.4
20260903230703 80 96 2.0 5.0 0.00 0.04 0.04 90 1006.4
20260903230602 80 103 3.0 5.0 0.00 0.04 0.04 90 1006.4
20260903230505 80 86 3.0 5.0 0.00 0.04 0.04 90 1006.4
20260903230403 80 90 2.0 5.0 0.00 0.04 0.04 90 1006.3
20260903230303 80 68 2.0 5.0 0.00 0.04 0.04 90 1006.4
20260903230203 80 69 2.0 5.0 0.00 0.04 0.04 90 1006.4
20260903230006 80 87 2.0 5.0 0.00 0.04 0.04 90 1006.4
20260903225903 80 94 2.0 5.0 0.00 0.04 0.04 90 1006.4
20260903225804 80 93 2.0 5.0 0.00 0.04 0.04 90 1006.4
20260903225702 80 102 2.0 5.0 0.00 0.04 0.04 90 1006.4
20260903225602 79 76 2.0 5.0 0.00 0.04 0.04 90 1006.4
20260903225504 79 72 2.0 5.0 0.00 0.04 0.04 90 1006.4
20260903225403 80 76 1.0 5.0 0.00 0.04 0.04 90 1006.4
20260903225302 79 56 3.0 5.0 0.00 0.04 0.04 90 1006.4
20260903225202 79 75 3.0 5.0 0.00 0.04 0.04 90 1006.4
20260903225104 79 58 3.0 5.0 0.00 0.04 0.04 90 1006.5
20260903225002 79 76 2.0 5.0 0.00 0.04 0.04 90 1006.5
20260903224902 79 54 2.0 5.0 0.00 0.04 0.04 90 1006.4
20260903224802 79 58 3.0 5.0 0.00 0.04 0.04 90 1006.4
20260903224703 79 59 4.0 5.0 0.00 0.04 0.04 90 1006.5
20260903224603 79 82 3.0 5.0 0.00 0.04 0.04 90 1006.5
20260903224502 79 56 2.0 4.0 0.00 0.04 0.04 90 1006.5
20260903224403 79 55 2.0 4.0 0.00 0.04 0.04 90 1006.5
20260903224303 79 65 2.0 4.0 0.00 0.04 0.04 91 1006.5
20260903224205 79 63 2.0 5.0 0.00 0.04 0.04 91 1006.5
20260903224103 79 58 2.0 5.0 0.00 0.04 0.04 91 1006.5
20260903224003 79 65 2.0 6.0 0.00 0.04 0.04 90 1006.5
20260903223903 79 65 2.0 6.0 0.00 0.04 0.04 90 1006.5
20260903223803 79 65 2.0 6.0 0.00 0.04 0.04 90 1006.5
20260903223704 79 65 2.0 6.0 0.00 0.04 0.04 90 1006.5
20260903223604 79 65 2.0 7.0 0.00 0.04 0.04 90 1006.5
20260903223503 79 61 2.0 7.0 0.00 0.04 0.04 90 1006.5
20260903223402 79 56 2.0 7.0 0.00 0.04 0.04 90 1006.4
20260903223303 79 54 3.0 7.0 0.00 0.04 0.04 90 1006.3
20260903223203 79 82 4.0 7.0 0.00 0.04 0.04 91 1006.4
20260903223103 79 75 3.0 7.0 0.00 0.04 0.04 91 1006.4
20260903223005 79 89 2.0 7.0 0.00 0.04 0.04 90 1006.4
20260903222903 79 83 4.0 7.0 0.00 0.04 0.04 90 1006.3
20260903222804 79 83 5.0 7.0 0.01 0.04 0.04 90 1006.3
20260903222704 79 89 4.0 7.0 0.01 0.04 0.04 90 1006.4
20260903222605 79 90 3.0 7.0 0.01 0.04 0.04 90 1006.4
20260903222504 79 100 3.0 7.0 0.01 0.04 0.04 90 1006.4
20260903222404 79 90 4.0 7.0 0.01 0.04 0.04 90 1006.4
20260903222305 79 73 4.0 7.0 0.01 0.04 0.04 90 1006.4
20260903222203 79 87 3.0 7.0 0.01 0.04 0.04 90 1006.4
20260903222103 79 96 3.0 7.0 0.01 0.04 0.04 90 1006.4
20260903222002 79 93 4.0 7.0 0.01 0.04 0.04 90 1006.4
20260903221903 79 97 4.0 7.0 0.01 0.04 0.04 90 1006.4
20260903221802 79 83 5.0 7.0 0.01 0.04 0.04 90 1006.4
20260903221704 79 99 5.0 7.0 0.01 0.04 0.04 90 1006.4
20260903221603 79 85 5.0 7.0 0.01 0.04 0.04 90 1006.5
20260903221504 79 94 5.0 7.0 0.01 0.04 0.04 90 1006.4
20260903221402 79 94 4.0 6.0 0.01 0.04 0.04 90 1006.5
20260903221302 79 87 3.0 9.0 0.01 0.04 0.04 90 1006.5
20260903221202 79 79 3.0 9.0 0.01 0.04 0.04 90 1006.4
20260903221104 79 89 4.0 9.0 0.01 0.04 0.04 90 1006.4
20260903221002 79 86 4.0 9.0 0.01 0.04 0.04 90 1006.5
20260903220904 79 96 3.0 9.0 0.01 0.04 0.04 90 1006.5
20260903220801 79 86 3.0 9.0 0.01 0.04 0.04 91 1006.6
20260903220704 79 34 5.0 9.0 0.01 0.04 0.04 91 1006.6
20260903220603 79 34 5.0 9.0 0.01 0.04 0.04 91 1006.6
20260903220504 79 34 5.0 9.0 0.01 0.04 0.04 91 1006.6
20260903220404 79 87 5.0 9.0 0.01 0.04 0.04 91 1006.6
20260903220303 79 80 4.0 9.0 0.01 0.04 0.04 91 1006.6
20260903220204 79 99 5.0 9.0 0.01 0.04 0.04 91 1006.5
20260903220004 79 92 3.0 7.0 0.02 0.04 0.02 91 1006.6
20260903215904 79 104 2.0 7.0 0.02 0.04 0.04 91 1006.5
20260903215803 79 87 2.0 7.0 0.02 0.04 0.04 91 1006.5
20260903215704 79 87 3.0 7.0 0.02 0.04 0.04 91 1006.4
20260903215602 79 87 2.0 7.0 0.02 0.04 0.04 91 1006.4
20260903215504 79 96 1.0 7.0 0.02 0.04 0.04 91 1006.5
20260903215403 79 99 3.0 7.0 0.02 0.04 0.04 91 1006.5
20260903215306 79 99 5.0 7.0 0.02 0.04 0.04 91 1006.6
20260903215202 79 120 5.0 7.0 0.02 0.04 0.04 91 1006.7
20260903215103 79 69 5.0 7.0 0.02 0.04 0.04 91 1006.7
20260903215004 80 102 4.0 7.0 0.02 0.04 0.04 91 1006.7
20260903214903 80 90 3.0 6.0 0.02 0.04 0.04 92 1006.8
20260903214804 80 90 3.0 6.0 0.02 0.04 0.04 92 1006.9
20260903214702 80 102 4.0 6.0 0.02 0.04 0.04 91 1006.9
20260903214604 80 104 4.0 6.0 0.02 0.04 0.04 92 1007.0
20260903214504 80 106 2.0 4.0 0.02 0.04 0.04 92 1006.9
20260903214402 80 102 2.0 3.0 0.02 0.04 0.04 92 1007.0
20260903214304 80 102 2.0 4.0 0.02 0.04 0.04 92 1006.9
20260903214204 80 103 2.0 4.0 0.02 0.04 0.04 92 1007.0
20260903214103 79 102 2.0 4.0 0.02 0.04 0.04 92 1006.9
20260903214003 79 100 1.0 4.0 0.02 0.04 0.04 92 1007.0
20260903213903 79 99 2.0 4.0 0.02 0.04 0.04 92 1007.0
20260903213803 79 99 1.0 4.0 0.02 0.04 0.04 91 1007.0
20260903213704 79 99 2.0 4.0 0.02 0.04 0.04 91 1007.0
20260903213604 79 97 2.0 4.0 0.02 0.04 0.04 91 1007.0
20260903213505 79 96 2.0 4.0 0.02 0.04 0.04 92 1007.0
20260903213402 79 100 2.0 4.0 0.02 0.04 0.04 92 1007.0
20260903213303 79 100 2.0 3.0 0.02 0.04 0.04 92 1007.0
20260903213203 79 100 2.0 3.0 0.02 0.04 0.04 92 1007.1
20260903213104 79 100 1.0 2.0 0.02 0.04 0.04 92 1007.0
20260903213004 79 100 0.0 2.0 0.02 0.04 0.04 92 1007.0
20260903212902 79 76 0.0 2.0 0.02 0.03 0.03 92 1007.1
20260903212803 79 75 0.0 2.0 0.01 0.03 0.03 92 1007.1
20260903212702 79 75 0.0 2.0 0.01 0.03 0.03 92 1007.1
20260903212604 79 75 1.0 2.0 0.01 0.03 0.03 92 1007.1
20260903212503 79 75 1.0 2.0 0.01 0.03 0.03 92 1007.2
20260903212404 79 75 2.0 2.0 0.01 0.03 0.03 92 1007.2
20260903212306 79 75 1.0 2.0 0.01 0.03 0.03 92 1007.1
20260903212203 79 75 0.0 2.0 0.01 0.03 0.03 92 1007.2
20260903212103 79 73 1.0 2.0 0.01 0.03 0.03 92 1007.2
20260903212004 79 73 1.0 2.0 0.01 0.03 0.03 92 1007.2
20260903211905 79 73 1.0 2.0 0.01 0.03 0.03 92 1007.3
20260903211803 79 73 0.0 1.0 0.01 0.03 0.03 91 1007.2
20260903211704 79 73 0.0 1.0 0.01 0.03 0.03 92 1007.2
20260903211602 79 73 0.0 1.0 0.01 0.03 0.03 91 1007.3
20260903211504 79 73 0.0 1.0 0.02 0.03 0.03 91 1007.3
20260903211404 78 73 0.0 1.0 0.02 0.03 0.03 91 1007.2
20260903211302 79 73 0.0 2.0 0.02 0.03 0.03 91 1007.3
20260903211202 78 73 0.0 2.0 0.02 0.03 0.03 91 1007.3
20260903211104 79 73 0.0 2.0 0.02 0.03 0.03 91 1007.3
20260903211004 78 73 0.0 2.0 0.02 0.03 0.03 92 1007.3
20260903210903 78 73 0.0 2.0 0.02 0.03 0.03 92 1007.2
20260903210802 78 73 0.0 2.0 0.02 0.03 0.03 92 1007.3
20260903210703 78 73 0.0 2.0 0.02 0.03 0.03 92 1007.3
20260903210604 78 73 1.0 2.0 0.02 0.03 0.03 92 1007.4
20260903210503 78 73 1.0 2.0 0.02 0.03 0.03 91 1007.4
20260903210403 78 73 2.0 2.0 0.02 0.03 0.03 92 1007.4
20260903210303 78 73 1.0 2.0 0.02 0.03 0.03 92 1007.4
20260903210203 78 73 0.0 1.0 0.02 0.03 0.03 92 1007.4
20260903210104 78 73 0.0 1.0 0.02 0.02 0.02 92 1007.3
20260903210004 78 73 0.0 2.0 0.01 0.02 0.01 92 1007.5
20260903205901 78 73 0.0 2.0 0.01 0.02 0.02 92 1007.5
20260903205803 78 73 0.0 2.0 0.01 0.02 0.02 91 1007.5
20260903205703 78 73 0.0 2.0 0.01 0.02 0.02 91 1007.5
20260903205602 78 73 0.0 2.0 0.01 0.02 0.02 92 1007.5
20260903205503 78 73 0.0 2.0 0.01 0.02 0.02 92 1007.5
20260903205404 78 73 0.0 2.0 0.01 0.02 0.02 92 1007.5
20260903205306 78 73 0.0 2.0 0.01 0.02 0.02 92 1007.5
20260903205204 78 73 1.0 3.0 0.01 0.02 0.02 92 1007.5
20260903205102 78 73 1.0 3.0 0.01 0.02 0.02 92 1007.6
20260903205005 78 73 1.0 3.0 0.01 0.02 0.02 92 1007.5
20260903204904 78 75 0.0 4.0 0.01 0.02 0.02 92 1007.5
20260903204803 78 75 0.0 4.0 0.01 0.02 0.02 92 1007.5
20260903204704 78 75 1.0 4.0 0.01 0.02 0.02 92 1007.5
20260903204602 78 75 1.0 4.0 0.01 0.02 0.02 92 1007.5
20260903204503 78 75 0.0 4.0 0.01 0.02 0.02 92 1007.5
20260903204402 78 75 1.0 4.0 0.01 0.02 0.02 92 1007.5
20260903204304 78 75 1.0 4.0 0.01 0.02 0.02 92 1007.5
20260903204203 78 75 2.0 4.0 0.01 0.02 0.02 92 1007.5
20260903204102 78 75 2.0 4.0 0.01 0.02 0.02 92 1007.4
20260903204003 78 76 2.0 4.0 0.01 0.02 0.02 92 1007.5
20260903203904 78 78 1.0 4.0 0.01 0.02 0.02 91 1007.4
20260903203804 78 78 2.0 4.0 0.01 0.02 0.02 91 1007.4
20260903203701 78 78 3.0 4.0 0.01 0.02 0.02 92 1007.3
20260903203603 78 75 2.0 4.0 0.01 0.02 0.02 92 1007.4
20260903203503 78 76 2.0 3.0 0.01 0.02 0.02 91 1007.4
20260903203402 78 73 2.0 3.0 0.01 0.02 0.02 91 1007.5
20260903203303 78 299 2.0 3.0 0.01 0.02 0.02 91 1007.4
20260903203202 78 282 2.0 2.0 0.01 0.02 0.02 91 1007.3
20260903203103 78 276 2.0 2.0 0.01 0.02 0.02 91 1007.3
20260903203003 78 276 1.0 2.0 0.01 0.02 0.02 91 1007.3
20260903202902 78 276 1.0 2.0 0.01 0.02 0.02 91 1007.4
20260903202803 78 276 0.0 1.0 0.01 0.02 0.02 91 1007.3
20260903202702 78 276 0.0 1.0 0.01 0.02 0.02 91 1007.4
20260903202603 78 276 0.0 1.0 0.01 0.02 0.02 91 1007.5
20260903202504 78 276 0.0 1.0 0.01 0.02 0.02 91 1007.5
20260903202402 78 276 0.0 2.0 0.01 0.02 0.02 91 1007.6
20260903202306 78 276 0.0 3.0 0.01 0.02 0.02 91 1007.5
20260903202203 78 278 0.0 3.0 0.01 0.02 0.02 91 1007.6
20260903202103 78 278 0.0 3.0 0.01 0.02 0.02 91 1007.6
20260903202004 78 279 0.0 3.0 0.01 0.02 0.02 91 1007.6
20260903201903 78 279 0.0 3.0 0.01 0.02 0.02 91 1007.6
20260903201805 78 279 0.0 3.0 0.01 0.02 0.02 91 1007.6
20260903201704 78 279 0.0 3.0 0.01 0.02 0.02 91 1007.6
20260903201603 78 279 0.0 3.0 0.01 0.01 0.01 91 1007.5
20260903201504 78 279 2.0 3.0 0.00 0.01 0.01 91 1007.5
20260903201402 78 279 2.0 3.0 0.00 0.01 0.01 90 1007.6
20260903201303 78 237 2.0 4.0 0.00 0.01 0.01 90 1007.6
20260903201204 78 234 2.0 5.0 0.00 0.01 0.01 90 1007.5
20260903201103 78 234 2.0 5.0 0.00 0.01 0.01 90 1007.5
20260903201003 78 234 2.0 5.0 0.00 0.01 0.01 90 1007.6
20260903200903 78 233 2.0 5.0 0.00 0.01 0.01 90 1007.6
20260903200802 78 231 2.0 5.0 0.00 0.01 0.01 90 1007.6
20260903200703 78 230 2.0 6.0 0.00 0.01 0.01 90 1007.7
20260903200603 78 230 2.0 6.0 0.00 0.01 0.01 90 1007.6
20260903200504 78 231 2.0 6.0 0.00 0.01 0.01 90 1007.6
20260903200404 78 245 3.0 6.0 0.00 0.01 0.01 90 1007.8
20260903200302 78 251 4.0 6.0 0.00 0.01 0.01 89 1007.7
20260903200202 78 257 4.0 6.0 0.00 0.01 0.01 89 1007.7
20260903200004 78 261 4.0 6.0 0.00 0.01 0.01 89 1007.7
20260903195902 78 262 4.0 6.0 0.00 0.01 0.01 88 1007.7
20260903195802 78 259 4.0 6.0 0.00 0.01 0.01 88 1007.7
20260903195704 78 258 4.0 6.0 0.00 0.01 0.01 88 1007.7
20260903195602 78 258 5.0 6.0 0.00 0.01 0.01 88 1007.8
20260903195503 78 252 5.0 6.0 0.00 0.01 0.01 88 1007.8
20260903195403 78 252 5.0 6.0 0.00 0.01 0.01 87 1007.8
20260903195306 78 266 5.0 6.0 0.00 0.01 0.01 87 1007.8
20260903195202 78 265 6.0 9.0 0.00 0.01 0.01 87 1007.8
20260903195103 79 271 5.0 10.0 0.00 0.01 0.01 86 1007.9
20260903195004 79 254 5.0 10.0 0.00 0.01 0.01 86 1007.9
20260903194903 79 258 4.0 10.0 0.00 0.01 0.01 85 1007.9
20260903194804 79 241 4.0 10.0 0.00 0.01 0.01 85 1007.9
20260903194704 80 214 4.0 10.0 0.00 0.01 0.01 85 1008.0
20260903194602 80 216 4.0 10.0 0.00 0.01 0.01 85 1008.0
20260903194503 80 227 3.0 10.0 0.00 0.01 0.01 84 1008.0
20260903194404 80 221 5.0 10.0 0.00 0.01 0.01 84 1008.1
20260903194304 81 243 6.0 10.0 0.00 0.01 0.01 83 1008.1
20260903194204 81 250 6.0 10.0 0.00 0.01 0.01 83 1008.1
20260903194102 81 275 4.0 7.0 0.00 0.01 0.01 83 1008.1
20260903194003 81 251 2.0 5.0 0.00 0.01 0.01 82 1008.2
20260903193904 81 164 1.0 5.0 0.00 0.01 0.01 81 1008.2
20260903193804 81 120 1.0 6.0 0.00 0.01 0.01 81 1008.1
20260903193705 81 116 2.0 6.0 0.00 0.01 0.01 81 1008.1
20260903193604 82 109 2.0 10.0 0.00 0.01 0.01 81 1008.1
20260903193503 81 109 2.0 10.0 0.00 0.01 0.01 82 1008.0
20260903193402 81 107 3.0 10.0 0.00 0.01 0.01 82 1007.9
20260903193302 81 118 3.0 10.0 0.00 0.01 0.01 82 1007.9
20260903193204 81 118 2.0 10.0 0.00 0.01 0.01 82 1007.9
20260903193103 81 118 2.0 10.0 0.00 0.01 0.01 82 1007.8
20260903193005 81 134 4.0 10.0 0.00 0.01 0.01 82 1007.9
20260903192901 81 137 5.0 10.0 0.00 0.01 0.01 82 1007.9
20260903192804 80 103 6.0 10.0 0.00 0.01 0.01 82 1007.9
20260903192704 80 87 5.0 10.0 0.00 0.01 0.01 83 1007.9
20260903192606 80 157 2.0 4.0 0.00 0.01 0.01 83 1008.0
20260903192505 80 86 1.0 6.0 0.00 0.01 0.01 83 1008.1
20260903192402 80 85 1.0 6.0 0.00 0.01 0.01 83 1008.1
20260903192306 80 82 0.0 6.0 0.00 0.01 0.01 83 1008.1
20260903192203 80 82 0.0 6.0 0.00 0.01 0.01 83 1008.1
20260903192103 80 82 1.0 6.0 0.00 0.01 0.01 83 1008.2
20260903192004 80 82 1.0 6.0 0.00 0.01 0.01 82 1008.1
20260903191901 80 82 2.0 6.0 0.00 0.01 0.01 82 1008.2
20260903191803 80 71 3.0 6.0 0.00 0.01 0.01 82 1008.1
20260903191703 80 55 3.0 6.0 0.00 0.01 0.01 82 1008.2
20260903191603 80 54 3.0 6.0 0.00 0.01 0.01 82 1008.2
20260903191505 81 83 2.0 5.0 0.00 0.01 0.01 82 1008.2
20260903191404 81 37 3.0 5.0 0.00 0.01 0.01 82 1008.3
20260903191303 81 71 3.0 5.0 0.00 0.01 0.01 82 1008.3
20260903191203 81 63 2.0 4.0 0.00 0.01 0.01 82 1008.3
20260903191103 81 71 2.0 5.0 0.00 0.01 0.01 82 1008.3
20260903191002 81 58 3.0 6.0 0.00 0.01 0.01 82 1008.3
20260903190903 81 62 3.0 6.0 0.00 0.01 0.01 82 1008.3
20260903190804 81 68 2.0 6.0 0.00 0.01 0.01 82 1008.3
20260903190704 81 49 2.0 6.0 0.00 0.01 0.01 82 1008.2
20260903190603 81 94 2.0 6.0 0.00 0.01 0.01 82 1008.1
20260903190503 81 99 2.0 6.0 0.00 0.01 0.01 82 1008.1
20260903190403 81 87 2.0 6.0 0.00 0.01 0.01 82 1008.0
20260903190303 81 90 3.0 6.0 0.00 0.01 0.01 82 1008.0
20260903190203 81 93 4.0 9.0 0.00 0.01 0.01 82 1008.1
20260903190104 81 90 5.0 9.0 0.00 0.01 0.01 81 1008.0
20260903190003 81 94 5.0 9.0 0.00 0.01 0.01 81 1008.0
20260903185903 81 110 5.0 9.0 0.00 0.01 0.01 81 1008.1
20260903185802 81 89 3.0 9.0 0.00 0.01 0.01 81 1008.0
20260903185703 81 72 2.0 9.0 0.00 0.01 0.01 81 1008.0
20260903185604 81 69 4.0 9.0 0.00 0.01 0.01 80 1008.0
20260903185504 81 90 4.0 9.0 0.00 0.01 0.01 80 1008.0
20260903185402 82 123 4.0 9.0 0.00 0.01 0.01 80 1008.0
20260903185306 82 86 5.0 11.0 0.00 0.01 0.01 79 1007.9
20260903185202 82 93 5.0 11.0 0.00 0.01 0.01 79 1007.9
20260903185104 82 92 4.0 11.0 0.00 0.01 0.01 79 1007.9
20260903185005 82 63 4.0 12.0 0.00 0.01 0.01 79 1007.8
20260903184903 82 75 4.0 12.0 0.00 0.01 0.01 78 1007.7
20260903184802 82 87 4.0 12.0 0.00 0.01 0.01 76 1007.6
20260903184704 82 87 4.0 12.0 0.00 0.01 0.01 76 1007.5
20260903184603 83 75 5.0 12.0 0.00 0.01 0.01 76 1007.5
20260903184505 83 17 6.0 12.0 0.00 0.01 0.01 76 1007.6
20260903184403 83 48 6.0 12.0 0.00 0.01 0.01 76 1007.6
20260903184303 83 42 6.0 12.0 0.00 0.01 0.01 76 1007.6
20260903184203 83 79 6.0 12.0 0.00 0.01 0.01 76 1007.7
20260903184102 84 47 6.0 12.0 0.00 0.01 0.01 75 1007.7
20260903184004 84 45 6.0 12.0 0.00 0.01 0.01 75 1007.8
20260903183903 85 56 6.0 12.0 0.00 0.01 0.01 75 1007.8
20260903183803 85 66 6.0 12.0 0.00 0.01 0.01 75 1007.8
20260903183704 85 45 7.0 12.0 0.00 0.01 0.01 76 1007.7
20260903183603 85 114 6.0 12.0 0.00 0.01 0.01 77 1007.7
20260903183504 85 31 5.0 12.0 0.00 0.01 0.01 77 1007.6
20260903183404 85 20 5.0 12.0 0.00 0.01 0.01 76 1007.5
20260903183303 85 30 5.0 12.0 0.00 0.01 0.01 76 1007.6
20260903183204 85 24 6.0 12.0 0.00 0.01 0.01 76 1007.5
20260903183105 85 3 5.0 12.0 0.00 0.01 0.01 76 1007.6
20260903183005 85 24 5.0 12.0 0.00 0.01 0.01 76 1007.7
20260903182901 85 3 6.0 12.0 0.00 0.01 0.01 75 1007.7
20260903182802 85 11 5.0 10.0 0.00 0.01 0.01 75 1007.7
20260903182703 85 55 5.0 9.0 0.00 0.01 0.01 75 1007.7
20260903182603 85 0 4.0 7.0 0.00 0.01 0.01 75 1007.9
20260903182504 85 20 5.0 7.0 0.00 0.01 0.01 74 1008.0
20260903182402 85 30 6.0 11.0 0.00 0.01 0.01 74 1007.9
20260903182306 85 0 5.0 11.0 0.00 0.01 0.01 74 1008.0
20260903182203 85 0 5.0 11.0 0.00 0.01 0.01 74 1008.0
20260903182104 85 0 5.0 11.0 0.00 0.01 0.01 74 1008.0
20260903182004 85 0 5.0 11.0 0.00 0.01 0.01 74 1008.0
20260903181903 85 0 5.0 11.0 0.00 0.01 0.01 74 1008.1
20260903181803 85 0 5.0 11.0 0.00 0.01 0.01 74 1008.0
20260903181703 85 0 4.0 11.0 0.00 0.01 0.01 74 1007.9
20260903181604 85 21 6.0 11.0 0.00 0.01 0.01 74 1007.8
20260903181504 85 0 6.0 11.0 0.00 0.01 0.01 73 1007.9
20260903181402 85 34 6.0 9.0 0.00 0.01 0.01 73 1007.8
20260903181304 85 7 6.0 9.0 0.00 0.01 0.01 73 1007.7
20260903181203 85 16 4.0 9.0 0.00 0.01 0.01 74 1007.8
20260903181104 86 34 3.0 9.0 0.00 0.01 0.01 74 1007.8
20260903181004 86 3 3.0 9.0 0.00 0.01 0.01 74 1007.8
20260903180903 85 4 4.0 9.0 0.00 0.01 0.01 73 1007.8
20260903180802 85 358 5.0 9.0 0.00 0.01 0.01 73 1007.8
20260903180704 86 350 5.0 9.0 0.00 0.01 0.01 73 1007.9
20260903180604 86 351 6.0 10.0 0.00 0.01 0.01 73 1007.9
20260903180504 86 354 7.0 10.0 0.00 0.01 0.01 72 1007.9
20260903180404 86 353 6.0 10.0 0.00 0.01 0.01 72 1007.9
20260903180304 86 0 6.0 10.0 0.00 0.01 0.01 72 1007.9
20260903180143 86 1 6.0 10.0 0.00 0.01 0.01 72 1008.0
20260903180043 86 350 6.0 10.0 0.00 0.01 0.01 72 1007.9
20260903175942 86 11 6.0 10.0 0.00 0.01 0.01 71 1008.0